ECMWFNIL_850_spd_021.txt.gz
Wind_Speed
4 5 5 5 6 6 7 7 7 7 7 7 7 6 5 5 5 5 5 5 6 7 7 8 8 9 8 9 9 9 10 10 10 10 10 8 9 9 9 10 10 10
5 6 6 6 6 7 7 6 6 7 7 7 6 4 5 7 7 7 7 7 8 8 8 8 8 8 8 9 9 9 9 9 9 9 8 8 8 8 8 9 9 9
6 6 6 7 7 7 7 6 7 8 8 7 5 5 6 9 10 10 9 9 10 9 9 9 8 8 8 9 10 10 9 9 9 9 9 8 8 8 8 9 10 10
6 7 7 7 7 7 6 7 7 7 8 6 6 6 7 8 10 10 10 11 11 11 10 9 9 9 9 10 11 11 10 9 9 10 10 9 8 8 9 9 10 10
7 8 8 7 7 7 6 7 7 7 6 5 5 6 6 7 8 9 11 13 12 11 10 9 8 9 9 10 10 11 9 8 8 10 10 10 9 9 10 10 10 9
8 8 8 7 7 6 6 6 6 5 4 3 5 5 6 8 9 10 13 14 12 11 11 10 10 9 10 9 9 10 10 9 9 10 11 11 10 11 11 12 11 10
9 8 8 8 7 6 6 5 4 3 2 3 5 6 7 8 10 12 14 13 12 12 13 13 13 13 12 11 10 11 12 12 11 11 11 12 11 12 13 13 12 12
9 8 8 7 6 6 5 4 3 1 0 3 6 8 9 10 10 13 14 13 12 13 14 15 16 16 16 14 11 11 12 12 13 13 13 14 14 14 14 14 13 13
9 9 8 7 6 6 5 3 2 1 3 5 8 9 10 10 11 12 13 12 11 12 14 15 16 17 19 16 12 12 12 13 13 14 15 16 16 16 15 15 14 15
10 9 9 7 6 6 5 4 3 4 6 8 9 8 9 10 10 10 10 10 11 12 13 15 16 17 20 18 13 12 13 13 13 13 14 16 16 16 15 15 15 16
9 8 9 8 7 6 5 4 4 6 9 11 11 12 12 12 11 12 12 11 11 12 12 13 14 17 20 19 14 11 11 11 11 13 14 15 16 15 15 16 16 16
8 10 11 8 6 5 4 5 7 10 13 14 15 16 16 14 14 15 13 12 11 12 12 14 16 19 20 18 14 12 10 10 11 13 15 16 16 17 17 17 17 16
8 11 12 8 5 5 5 6 7 9 11 12 13 13 13 14 16 15 14 13 14 14 15 17 18 19 16 14 15 14 11 11 12 13 16 17 17 18 18 17 17 16
10 10 11 8 6 7 7 6 7 8 10 10 11 11 11 12 13 12 13 13 14 14 13 14 14 12 11 12 14 13 11 11 12 13 15 18 19 18 17 17 16 14
12 10 10 9 8 9 8 8 8 8 9 9 9 9 9 10 10 11 12 13 12 12 12 11 10 9 10 13 13 11 11 12 12 13 16 18 19 18 17 17 15 14
15 14 12 10 10 10 9 9 9 9 8 8 8 9 9 9 10 11 11 11 12 12 12 10 9 9 10 11 10 10 10 11 12 13 16 18 18 17 18 17 15 14
20 17 15 12 12 12 11 11 11 10 9 9 9 9 8 9 10 11 10 11 12 13 12 11 10 9 10 10 9 8 9 10 12 13 15 17 17 17 17 16 15 15
23 19 18 15 14 14 13 13 13 12 12 11 10 9 9 10 10 10 10 11 12 13 14 12 10 9 9 9 10 10 10 11 11 13 15 16 16 16 16 15 14 15
23 20 19 17 16 16 14 15 15 14 14 13 11 10 10 10 10 10 10 10 12 15 15 11 9 9 10 11 12 13 13 13 14 14 15 16 16 16 15 14 13 15
23 21 20 18 18 17 16 17 17 15 15 14 13 12 12 11 11 12 11 11 13 15 14 10 9 11 12 13 15 15 15 15 16 16 16 16 16 16 15 14 13 14
24 23 21 20 20 19 19 19 18 17 16 15 13 13 13 12 12 13 13 12 13 13 12 10 11 14 16 17 17 17 17 16 16 16 16 16 16 16 16 15 14 14
26 24 23 23 22 22 22 21 20 19 17 16 14 14 13 13 13 13 12 11 11 11 11 12 14 16 17 18 18 19 18 16 15 15 15 16 17 17 17 16 15 15
26 26 26 25 25 25 24 24 23 21 18 17 16 15 14 14 14 13 12 11 11 12 13 14 15 16 18 19 18 18 17 16 14 15 15 16 18 18 17 17 16 15
27 27 27 27 28 28 27 26 25 23 21 19 17 16 15 15 14 14 13 12 13 14 15 15 15 17 19 19 17 16 17 16 15 15 16 17 18 18 17 16 16 16
28 28 28 29 29 29 29 28 27 25 23 20 19 17 15 15 15 14 14 14 14 14 14 15 16 18 20 18 17 17 17 15 14 14 15 16 17 17 16 16 16 16
29 29 29 29 30 31 31 30 28 27 25 22 20 18 17 17 16 16 17 17 16 15 15 16 17 19 19 18 17 17 16 14 13 14 15 16 17 17 17 17 16 16

ECMWFNIL_850_spd_024.txt.gz
Wind_Speed
10 8 7 6 5 5 5 5 5 4 4 4 4 4 5 5 5 5 4 4 4 5 5 5 5 5 4 4 4 4 4 4 4 4 4 4 4 4 5 6 6 6
11 9 8 6 5 5 5 5 5 5 4 3 3 5 5 4 3 3 4 4 4 4 5 5 5 5 4 4 4 3 4 4 4 5 4 4 4 4 5 6 7 7
12 9 7 6 5 4 4 5 5 4 4 3 4 5 4 3 3 3 3 3 4 4 5 5 5 5 5 5 5 5 4 5 5 5 5 5 5 5 6 6 7 8
11 9 7 6 5 5 5 5 4 4 4 4 4 3 2 1 2 2 2 3 4 4 3 4 5 6 6 6 7 6 5 5 5 6 6 6 7 7 7 7 8 8
11 9 8 7 6 5 5 5 4 4 5 5 4 3 2 1 1 1 2 4 4 4 4 5 6 6 7 7 8 8 8 7 6 7 8 8 8 9 9 10 9 9
12 10 9 7 6 6 6 5 5 6 6 6 5 4 3 2 1 1 3 4 4 4 5 6 7 7 8 9 9 10 10 9 8 8 9 9 10 10 11 12 12 11
13 10 9 8 7 7 7 6 6 7 7 7 6 4 4 4 4 3 3 5 5 5 5 7 9 8 9 10 11 11 11 12 11 10 11 11 11 11 12 13 13 13
13 11 9 9 8 8 7 7 7 7 8 8 6 5 5 6 6 5 6 8 7 6 7 8 10 10 10 10 11 12 12 12 12 12 12 12 11 11 12 13 14 14
14 11 10 9 8 8 7 6 7 8 9 9 6 6 7 7 8 8 9 9 8 8 8 8 10 12 12 11 11 13 13 12 13 13 12 12 12 12 12 13 14 14
15 12 11 10 9 8 7 7 9 10 9 8 7 8 9 10 10 11 11 11 11 10 10 11 12 12 13 13 13 14 15 13 12 12 11 12 12 12 12 13 13 14
16 13 11 10 10 9 7 6 9 9 8 7 8 10 11 12 12 12 12 13 14 14 14 15 15 14 14 14 14 16 16 12 11 12 12 12 11 12 13 13 14 15
18 14 10 10 11 9 6 6 7 7 7 8 10 11 13 14 14 14 14 15 15 16 16 17 16 15 16 17 17 17 15 12 11 12 12 11 11 11 13 14 14 15
18 13 9 10 10 7 6 6 6 6 7 8 11 14 16 17 16 15 16 17 17 17 17 17 17 18 19 19 17 15 13 11 11 11 11 11 11 12 13 14 14 15
17 11 9 10 9 8 8 7 6 6 7 9 13 16 17 17 16 15 16 17 17 17 16 16 16 16 16 16 15 13 12 12 12 11 10 10 12 13 14 15 15 15
16 12 11 12 11 10 10 8 7 8 8 11 13 15 15 15 15 15 15 16 15 15 14 13 12 12 12 12 12 11 11 12 11 10 10 11 12 14 15 15 15 15
17 13 13 15 14 11 11 10 10 11 12 13 14 14 15 15 15 15 15 14 14 13 12 11 10 10 10 9 8 8 9 9 9 10 11 12 13 14 15 14 15 15
17 14 15 17 15 12 12 12 12 14 15 15 15 16 16 15 15 14 14 13 13 13 12 10 10 10 10 9 8 8 10 10 11 12 13 14 14 15 15 15 15 15
18 15 16 17 15 14 15 15 15 17 18 17 17 17 16 15 15 14 14 13 13 13 12 11 11 11 10 10 10 11 12 13 13 14 15 16 16 16 16 16 15 15
15 14 15 17 16 16 17 17 18 20 20 19 18 17 17 17 16 15 15 15 14 13 13 13 13 12 11 11 12 12 13 15 16 17 17 17 17 17 18 17 16 16
15 14 15 17 19 19 20 21 21 22 22 21 20 19 19 19 18 17 16 16 15 14 15 15 14 13 13 13 13 14 15 17 18 18 18 18 18 18 18 18 17 16
20 16 15 17 21 22 23 24 24 24 23 23 22 21 21 20 19 18 18 17 16 15 16 16 14 13 14 14 14 15 16 18 18 18 17 17 18 18 18 18 17 17
24 20 18 20 23 24 25 26 26 26 25 24 24 23 22 21 20 20 19 18 16 16 16 17 15 14 15 15 15 16 17 18 17 17 16 17 17 17 18 18 18 18
26 24 21 21 24 25 26 27 27 27 26 25 25 24 23 23 23 22 21 20 18 17 17 17 16 16 17 17 17 18 18 17 17 16 16 16 17 17 18 18 17 17
29 27 24 22 24 25 25 27 28 28 27 26 26 26 25 24 24 24 25 25 23 19 18 18 17 17 19 19 18 19 18 18 18 17 16 16 17 16 17 17 16 15
29 26 22 20 22 23 24 27 29 29 28 27 27 28 27 27 26 27 28 29 27 23 21 20 20 19 19 20 20 20 19 19 19 18 17 17 17 16 16 16 16 17
26 20 18 19 22 23 25 28 29 29 30 29 28 28 28 29 29 30 29 29 27 25 24 25 25 24 22 22 22 21 21 20 19 18 17 17 17 17 17 18 18 19

ECMWFNIL_850_spd_027.txt.gz
Wind_Speed
20 19 18 18 17 14 13 12 12 12 12 11 10 9 9 8 8 9 8 7 7 8 8 8 8 8 8 8 8 8 8 8 7 7 7 7 7 7 8 8 8 8
21 19 19 18 17 14 12 12 12 12 11 10 10 9 8 7 7 8 7 6 6 7 9 9 9 9 9 9 9 9 9 9 8 8 7 7 8 8 8 9 10 10
22 20 20 18 15 13 12 12 12 12 11 11 10 9 7 6 6 7 6 5 5 6 7 8 9 8 8 9 9 9 9 8 8 9 8 8 9 9 10 10 11 11
22 21 20 17 14 13 13 13 13 12 12 11 10 8 6 6 7 7 6 4 3 4 5 5 4 5 5 6 8 8 9 9 9 9 10 10 10 10 11 12 12 12
23 21 19 16 15 14 14 13 13 12 12 11 10 9 8 8 8 8 6 5 3 3 4 3 2 2 4 5 6 7 8 9 10 11 11 11 11 12 12 13 14 14
24 22 19 17 16 15 14 13 12 12 12 11 10 10 9 9 9 8 6 6 5 5 5 5 4 4 5 6 7 8 8 8 10 12 13 12 12 13 13 13 14 15
26 22 20 18 17 16 15 13 13 13 12 11 12 12 10 9 9 8 7 7 7 7 8 8 7 6 7 9 10 11 11 10 10 11 14 14 13 13 13 14 15 16
26 23 20 19 17 16 15 14 14 13 12 13 13 13 11 9 8 8 8 8 9 10 10 10 10 9 9 11 13 14 13 12 11 11 13 14 14 14 14 14 15 16
27 24 21 19 17 17 16 15 14 13 14 14 13 12 11 9 8 8 9 10 12 13 13 13 12 12 12 14 15 16 15 14 13 13 14 15 15 15 14 14 15 16
27 25 22 19 18 17 16 15 14 14 15 15 13 12 11 10 9 9 10 12 14 14 14 14 14 14 14 15 16 17 17 16 15 14 15 15 16 15 15 14 15 15
29 26 23 20 18 17 16 15 14 15 14 13 12 12 11 10 10 11 12 13 14 15 15 15 15 15 16 16 17 18 18 17 16 14 14 15 16 15 15 14 14 15
30 28 24 21 19 17 16 14 15 14 10 10 13 13 12 12 12 12 12 13 15 16 16 17 17 18 18 18 18 18 18 18 17 15 14 15 16 16 15 14 14 15
32 29 24 20 19 17 15 15 17 12 8 9 14 15 13 13 12 11 12 14 16 17 17 18 19 19 20 20 19 19 19 18 17 15 15 15 16 15 14 14 14 16
32 29 23 19 19 18 16 18 17 11 8 11 16 16 14 13 12 12 14 16 17 18 18 19 19 20 20 20 19 19 18 17 16 16 16 15 16 15 14 14 15 16
32 29 24 19 18 17 18 17 12 10 11 15 18 17 15 14 13 14 16 18 19 19 19 19 20 20 19 18 17 17 17 17 16 16 15 15 15 15 15 16 16 17
32 29 26 21 18 19 20 13 11 12 18 19 19 18 16 15 15 16 17 19 20 20 20 20 20 19 17 15 15 14 14 14 14 13 13 14 15 16 17 18 18 18
31 30 28 21 18 19 16 14 14 19 22 21 20 19 17 17 17 18 19 20 21 20 20 20 19 18 15 13 13 13 13 13 13 13 13 14 16 17 19 19 20 20
32 32 28 22 19 16 17 17 19 24 24 22 22 21 19 19 19 19 19 20 20 21 21 20 19 17 15 13 13 14 15 15 15 15 15 16 17 19 20 21 21 22
32 33 30 25 20 18 19 21 24 25 24 23 22 22 21 21 21 20 20 21 21 21 21 20 19 18 16 14 14 15 16 17 17 17 17 17 19 20 21 21 22 22
32 34 31 25 20 17 20 26 27 26 25 23 24 24 24 23 22 21 21 21 21 22 21 21 20 19 17 15 15 16 17 19 19 18 18 19 20 21 22 21 21 22
33 36 32 26 20 17 23 28 28 26 25 25 26 26 25 24 23 23 23 22 23 23 22 22 22 20 18 17 16 17 18 19 20 20 19 20 21 22 22 21 20 21
36 38 32 24 18 18 24 29 29 27 26 26 26 27 27 26 25 25 24 24 24 23 24 25 24 22 21 19 17 17 19 21 21 21 20 21 22 22 21 20 20 20
37 39 30 20 17 18 21 23 26 28 27 26 26 28 28 27 27 27 26 25 26 26 27 27 26 25 24 21 19 19 22 23 23 22 22 23 23 22 21 20 19 19
38 39 30 21 18 17 17 19 23 27 27 26 26 28 28 27 27 27 26 27 28 29 29 27 26 25 25 25 23 21 23 25 25 24 25 25 24 22 21 20 18 18
36 36 30 24 21 18 17 18 20 22 23 24 25 27 28 27 27 27 28 29 31 31 30 29 27 26 26 28 27 25 24 24 25 26 27 27 25 21 20 19 18 17
33 31 27 25 24 21 19 18 17 17 20 23 25 27 28 29 29 29 29 30 31 32 32 32 31 29 28 29 29 29 28 26 25 28 29 28 24 21 19 18 16 16

ECMWFNIL_850_spd_030.txt.gz
Wind_Speed
25 23 22 21 20 18 18 17 17 17 17 16 15 14 13 13 12 12 12 11 11 10 10 9 9 9 9 9 10 10 11 11 10 10 10 10 10 9 9 9 9 10
25 24 23 22 21 19 19 18 17 17 16 16 15 14 14 13 13 12 12 11 11 10 10 10 10 11 10 10 10 11 11 12 11 11 11 10 10 10 10 11 11 11
26 25 24 23 22 20 19 19 18 17 16 16 16 15 15 13 12 12 11 11 11 10 11 11 11 11 10 9 10 10 10 11 11 11 11 11 11 11 11 11 13 13
28 26 26 24 22 20 19 19 18 18 17 17 16 15 14 13 12 12 11 11 11 10 10 10 9 8 7 7 7 7 7 8 9 10 11 11 11 12 12 13 14 14
29 28 27 25 23 21 20 20 19 18 17 16 15 15 14 13 12 11 11 12 11 10 9 8 7 6 5 4 4 5 5 6 7 9 11 12 12 13 13 14 15 15
30 29 28 26 23 22 21 20 19 18 16 15 15 15 14 12 11 11 13 13 11 10 9 8 8 7 6 6 6 6 6 7 7 8 10 11 12 13 14 16 17 17
31 30 29 27 24 22 22 21 18 17 15 15 15 15 14 12 11 12 14 13 11 11 10 10 10 9 8 8 9 9 9 9 10 10 11 11 11 13 15 16 17 17
33 31 29 27 25 24 23 21 18 16 16 16 16 15 14 13 12 13 14 13 12 12 11 11 11 11 11 11 12 12 12 12 12 13 13 13 13 13 14 15 16 17
34 32 31 29 26 25 24 21 18 17 16 16 15 14 14 14 13 14 14 14 14 13 13 12 12 12 12 13 14 14 14 14 14 15 15 15 15 14 13 14 16 17
35 34 33 31 28 27 25 21 18 17 16 15 14 14 15 15 15 15 15 15 15 15 14 14 14 14 14 15 15 15 16 16 16 16 17 17 17 16 14 14 15 16
36 36 35 33 30 28 25 21 18 18 16 14 14 15 15 15 16 16 16 16 16 15 14 15 15 16 16 16 16 17 17 17 17 18 17 18 18 17 16 16 16 17
40 39 37 33 30 28 24 21 19 18 16 13 13 15 16 16 16 16 16 16 15 15 15 15 16 16 17 17 17 18 18 18 18 18 18 18 18 17 17 16 17 17
43 40 35 31 28 26 24 20 19 19 16 12 12 14 16 16 14 15 16 16 16 16 16 16 16 16 17 17 18 19 19 19 18 17 17 18 17 17 17 17 17 17
41 35 29 27 26 25 24 21 21 21 17 11 11 14 17 16 14 15 17 17 17 18 17 17 17 17 18 18 19 19 19 19 18 17 17 17 17 18 18 17 17 17
33 29 25 26 27 27 25 23 22 22 18 13 11 13 17 18 17 17 19 19 19 19 18 18 18 19 19 19 19 19 19 19 18 18 18 17 18 18 17 17 16 17
31 29 28 29 29 29 27 24 24 24 21 15 13 14 18 20 20 20 21 21 21 20 19 19 19 19 19 19 19 19 19 18 18 18 18 17 17 17 16 15 15 16
34 32 32 34 33 31 30 27 26 27 24 17 15 18 22 23 22 23 22 22 21 21 21 21 20 20 19 20 20 20 19 19 18 17 17 17 17 16 16 15 16 17
39 36 34 35 36 34 31 29 28 29 26 19 18 22 26 25 24 24 24 23 22 22 22 22 22 21 21 21 21 20 20 20 19 18 18 19 18 17 17 17 17 18
39 36 31 32 38 36 30 29 31 30 27 22 22 25 27 27 27 26 25 24 23 22 22 22 23 22 22 22 22 21 20 20 20 19 20 21 20 19 19 19 20 20
34 35 32 34 39 36 31 32 34 33 28 25 25 27 29 30 29 28 28 26 24 23 22 23 23 23 24 24 22 21 20 21 21 21 21 22 22 21 21 21 21 21
32 35 36 36 40 39 35 34 35 34 30 28 28 30 31 31 30 30 28 27 25 23 23 23 24 24 25 25 23 21 21 22 22 22 22 22 22 23 23 23 22 21
32 33 34 36 42 42 38 36 35 32 30 29 30 32 32 31 31 30 28 26 25 24 24 24 25 25 25 26 25 23 22 23 24 24 24 24 23 24 24 24 23 22
31 30 30 34 40 41 38 35 31 27 28 29 30 32 33 32 31 29 27 25 25 25 26 26 26 25 25 26 25 24 24 24 24 26 27 27 26 25 25 25 24 22
28 27 28 32 37 40 38 34 29 27 28 29 29 31 33 32 31 29 26 25 25 25 25 27 28 26 26 26 25 24 25 25 26 28 29 30 29 28 28 28 24 21
28 28 30 32 36 41 41 35 28 25 26 26 26 28 31 31 30 27 26 26 26 26 25 26 28 27 26 26 25 25 26 27 28 29 30 31 31 31 32 29 22 18
28 28 30 31 34 39 39 32 23 19 19 20 21 23 25 26 25 24 24 24 24 25 25 26 27 25 24 24 25 25 27 29 30 30 29 29 30 33 35 30 23 22

ECMWFNIL_850_spd_033.txt.gz
Wind_Speed
29 29 28 26 25 23 21 20 18 16 15 15 15 14 14 13 14 14 13 12 12 11 11 11 11 10 9 9 9 9 9 9 10 10 11 11 10 10 9 9 8 8
31 30 29 27 26 24 22 20 19 17 16 15 15 15 15 15 15 15 14 12 12 12 12 12 12 11 10 10 10 10 11 10 10 11 12 11 11 11 11 10 10 9
32 31 30 29 27 24 22 21 20 18 17 16 16 16 16 16 16 15 13 12 12 12 13 12 12 12 11 11 11 11 11 11 10 11 12 11 12 12 11 11 11 11
34 33 31 29 27 25 23 21 20 19 18 17 17 17 17 17 17 16 14 13 13 13 13 13 12 12 12 12 12 11 11 10 10 10 11 11 12 12 12 12 13 13
34 33 31 29 27 26 24 22 21 20 19 18 18 18 18 18 18 16 14 14 14 13 13 13 12 12 12 11 10 10 9 8 8 8 9 10 10 11 13 13 14 14
35 34 32 30 29 27 24 23 22 21 19 19 18 19 19 19 18 16 15 14 14 13 13 13 13 12 11 10 10 9 8 7 7 8 8 9 9 10 12 14 15 15
37 35 33 31 29 27 24 23 22 21 20 20 19 19 20 20 18 16 15 14 14 13 14 14 13 12 12 11 11 10 9 9 9 10 10 10 10 10 12 13 15 15
38 36 34 32 28 25 23 23 23 21 21 20 20 20 21 20 17 16 15 15 14 14 15 14 13 13 13 12 12 11 11 11 12 13 13 13 13 13 13 14 15 16
38 36 33 30 26 24 22 22 23 22 21 21 20 21 21 19 17 16 15 15 15 16 16 15 14 13 12 12 12 13 14 14 15 15 16 16 16 15 15 15 17 17
37 34 30 27 25 24 24 24 24 24 22 21 21 21 21 19 17 17 16 16 16 17 16 15 14 13 12 12 13 14 16 17 17 18 18 18 18 17 16 16 17 17
35 32 30 29 29 27 26 26 25 24 23 22 21 21 21 19 18 18 18 18 17 17 16 16 15 14 13 13 14 16 17 18 19 19 19 19 20 19 18 17 18 18
38 37 36 34 32 29 26 25 26 25 24 22 21 21 21 21 19 19 19 18 17 17 17 16 15 15 15 15 16 17 18 19 19 19 20 20 20 20 19 18 18 18
45 42 39 37 34 30 27 25 25 25 25 23 21 21 22 21 21 20 20 19 18 19 18 16 15 16 16 16 17 17 18 18 19 19 19 20 20 19 19 18 18 18
47 43 40 38 36 33 31 29 27 28 27 24 23 23 22 21 21 21 21 20 20 20 19 17 16 17 17 18 17 17 18 18 18 19 19 20 20 19 18 19 18 18
46 42 40 37 34 34 36 35 34 33 29 27 27 25 21 20 22 22 22 22 21 21 19 18 18 19 18 18 18 17 18 18 19 19 20 21 20 19 19 18 18 18
43 39 36 34 34 37 39 40 40 39 34 32 32 28 21 20 22 23 24 24 23 22 21 20 20 20 19 19 18 17 18 19 19 20 21 21 20 20 19 18 18 18
39 35 34 34 38 42 43 42 42 41 38 35 35 31 23 20 22 23 24 25 25 24 23 22 22 21 20 19 18 18 18 19 20 21 21 22 22 21 20 19 19 18
38 37 35 36 42 46 46 43 41 41 39 36 36 33 26 22 23 23 24 25 26 26 25 24 23 22 21 20 19 19 19 20 21 22 23 23 24 23 22 20 20 19
38 37 35 36 41 45 46 43 40 41 40 38 37 35 28 25 25 25 26 27 28 28 27 25 25 23 22 21 20 19 19 20 22 23 24 25 26 25 24 23 22 21
37 36 34 33 38 43 46 44 41 41 42 39 38 37 31 27 26 26 27 27 27 28 28 27 27 25 23 22 21 20 20 21 23 25 26 27 27 27 26 25 24 24
35 34 32 31 35 41 45 44 41 42 41 38 38 38 33 29 27 27 28 27 26 28 29 28 27 26 24 23 23 21 21 22 25 26 26 27 28 27 27 27 26 26
34 34 31 29 31 39 44 44 42 43 41 37 37 38 35 31 29 29 29 27 26 28 28 28 27 26 24 23 23 22 22 24 26 26 27 27 28 28 29 29 29 28
33 33 30 27 30 36 41 42 43 44 42 38 37 38 35 32 31 31 30 28 27 27 27 26 26 24 22 22 21 21 22 24 26 26 27 28 29 30 30 31 30 30
32 31 28 27 29 33 36 40 42 43 42 38 37 38 36 33 32 32 30 28 27 26 25 25 26 24 23 23 22 20 21 24 25 26 27 28 30 31 30 30 30 31
31 29 26 27 29 30 31 35 39 40 39 37 36 37 36 35 34 32 29 27 26 26 25 25 26 25 25 25 23 21 21 23 25 26 27 29 31 31 30 30 30 31
29 27 25 26 27 27 29 33 36 37 37 36 36 36 35 33 30 28 27 27 26 25 24 24 25 24 22 21 20 21 21 22 23 24 24 26 28 26 25 25 26 25

ECMWFNIL_850_spd_036.txt.gz
Wind_Speed
28 27 26 25 23 22 20 19 19 18 16 15 16 16 15 13 12 12 12 11 10 9 9 9 8 7 7 7 7 6 5 5 5 6 6 6 6 7 7 8 7 7
29 28 27 26 24 23 22 20 19 19 19 18 16 15 15 14 13 13 12 12 11 10 10 10 9 9 9 9 9 8 7 6 6 7 7 7 7 7 8 8 8 8
30 29 28 27 25 24 23 22 21 20 19 16 14 14 14 14 14 14 13 13 12 11 12 12 11 11 11 11 10 9 9 8 7 7 8 8 8 8 8 9 9 9
31 30 29 27 26 25 24 23 21 20 18 15 14 15 16 15 15 15 15 14 13 12 13 14 13 13 12 12 12 10 10 9 9 9 8 8 8 8 9 9 10 10
32 31 30 28 27 26 24 23 21 20 18 17 17 17 17 17 16 16 16 15 14 14 15 15 14 13 13 13 12 11 10 9 8 9 8 8 8 8 9 9 10 10
33 31 30 29 27 26 24 23 22 21 20 19 19 19 18 18 17 17 17 16 15 15 15 15 15 13 13 13 12 11 10 8 8 9 8 8 8 8 8 9 10 10
34 32 30 30 28 27 25 24 23 22 21 21 20 20 19 19 18 17 17 16 16 16 15 16 16 14 13 13 12 11 11 10 10 10 9 8 8 8 9 10 10 11
35 34 32 31 30 28 27 26 24 23 22 22 22 21 21 20 19 17 17 17 17 17 17 17 17 15 14 14 14 13 12 11 10 10 9 9 10 10 10 11 12 12
38 38 35 32 30 29 29 28 25 23 24 24 24 23 22 21 19 18 18 19 18 18 18 18 17 16 16 16 16 15 14 12 11 11 11 11 12 12 13 13 13 14
41 39 35 31 29 29 30 28 25 24 25 24 24 24 23 21 20 20 20 20 20 20 20 19 18 17 17 18 17 16 15 13 13 12 13 13 14 14 15 15 15 15
39 38 35 31 30 30 30 29 26 24 24 24 26 27 25 22 21 21 22 22 21 21 21 20 19 19 18 19 18 17 15 14 14 14 15 15 15 15 16 16 16 17
38 37 35 33 33 33 32 32 31 30 30 30 31 32 28 25 25 25 24 23 22 22 22 21 20 20 20 19 19 17 16 15 15 16 17 16 16 16 17 17 18 18
40 38 35 35 36 35 34 34 34 35 37 37 35 33 30 28 28 26 24 23 23 23 23 22 21 22 21 20 20 19 18 17 17 17 18 18 17 17 17 17 17 18
39 39 37 38 38 36 35 35 35 36 39 39 38 35 32 30 29 27 24 24 24 24 24 23 23 23 22 22 21 20 20 19 18 17 18 18 18 18 18 17 17 18
37 40 39 39 39 39 38 38 38 39 39 40 41 39 34 32 30 27 26 26 26 25 25 25 25 24 23 24 23 21 20 19 18 18 18 19 19 18 18 18 18 18
36 38 37 38 40 41 41 41 41 41 40 41 42 41 38 34 30 28 28 28 26 27 27 26 26 26 25 25 24 21 19 18 18 18 19 19 19 19 19 19 19 19
35 35 35 35 38 41 43 43 42 43 43 43 42 42 39 35 32 30 29 28 27 28 28 27 26 26 26 25 23 21 19 19 19 19 19 19 20 20 20 19 19 19
33 33 33 33 35 38 42 45 45 45 46 45 43 43 41 37 35 33 30 29 29 28 28 28 27 27 27 25 23 21 19 19 20 20 20 20 20 20 20 21 21 20
30 30 31 30 31 34 38 44 47 47 48 47 45 44 43 40 38 35 30 29 30 28 28 29 28 28 28 26 24 22 20 19 20 21 21 21 21 20 21 22 22 22
27 29 28 27 28 30 35 41 46 49 49 48 46 46 45 42 39 36 31 29 29 28 28 28 27 26 27 26 24 21 19 19 20 22 23 23 23 23 23 23 23 24
26 27 27 26 26 28 33 38 44 49 51 49 47 47 46 42 39 36 34 32 29 28 28 27 24 23 23 22 21 19 19 20 21 22 23 25 26 26 25 23 24 24
25 24 25 24 22 24 31 36 40 47 51 50 49 48 45 41 38 36 36 36 33 29 27 25 23 22 21 19 17 17 18 19 20 22 24 26 27 26 25 24 24 25
22 22 22 20 19 21 26 30 33 38 45 50 50 46 43 42 39 35 37 40 37 31 27 25 22 22 21 19 16 17 18 19 20 22 24 26 26 25 25 25 25 27
18 19 18 17 18 18 20 22 23 25 35 46 49 43 39 40 39 37 39 43 38 30 28 26 22 21 22 20 18 18 19 19 21 22 23 24 25 24 24 24 24 27
14 15 15 15 15 16 18 20 21 24 31 40 46 44 39 36 35 36 41 42 35 27 25 24 22 21 22 22 20 19 19 20 21 23 23 24 23 21 21 21 23 26
13 13 13 13 13 15 17 18 22 29 33 37 43 44 40 34 30 32 37 37 31 23 19 19 20 20 21 22 21 19 18 19 21 23 24 25 23 19 19 20 22 24

ECMWFNIL_850_spd_039.txt.gz
Wind_Speed
26 26 25 25 25 24 22 21 19 18 17 15 14 14 15 14 14 14 14 12 9 7 9 9 9 9 9 8 8 8 8 8 8 7 7 6 5 6 6 6 6 6
28 27 27 26 25 25 23 22 20 19 18 17 16 15 15 15 15 15 14 13 10 8 8 9 8 8 8 9 8 8 8 8 8 8 8 7 6 6 6 6 7 8
30 30 29 27 26 25 24 23 22 21 19 18 17 16 16 16 15 15 14 13 10 8 8 9 8 8 8 10 10 8 8 8 8 9 9 9 8 7 7 7 7 8
32 32 30 28 27 26 25 24 24 23 22 21 18 17 18 17 16 16 15 12 11 9 10 10 9 9 9 10 11 10 9 9 10 10 10 10 9 8 7 8 8 8
34 33 32 30 28 27 26 26 25 24 24 23 21 20 20 19 18 17 16 13 11 10 10 10 10 10 10 10 11 11 10 10 10 11 11 10 9 8 7 8 9 9
34 33 33 32 30 29 29 27 26 26 25 25 24 23 22 21 19 17 17 15 12 11 11 11 11 11 11 11 12 11 11 11 10 11 11 10 9 8 8 8 9 9
36 35 34 33 33 32 31 29 28 28 27 26 26 25 23 22 19 18 17 16 14 13 13 13 13 12 12 12 13 12 13 12 12 12 11 10 9 9 9 9 10 10
37 36 35 35 34 33 33 32 31 31 30 29 28 26 24 24 22 20 20 19 18 17 15 15 15 14 12 13 14 13 13 13 13 14 13 11 11 11 11 10 11 11
38 37 37 37 36 36 35 34 34 33 32 31 30 27 25 25 25 24 23 22 20 19 18 16 15 15 14 15 15 14 13 13 13 13 13 12 12 12 11 11 11 11
39 39 39 39 38 38 36 35 34 33 33 32 30 28 26 26 27 26 24 22 21 20 19 17 16 16 16 16 16 15 14 15 15 15 14 13 13 12 12 12 13 13
40 41 41 41 40 39 37 35 33 32 34 34 32 30 29 29 29 28 25 24 23 22 20 18 17 17 17 17 17 16 16 16 16 16 15 14 14 14 14 14 14 15
40 41 43 42 42 40 37 36 34 32 33 36 34 33 32 32 31 29 28 26 24 22 20 19 18 17 18 18 18 17 17 17 17 16 16 15 15 15 15 15 15 16
41 42 43 42 41 40 37 37 36 32 33 37 36 34 34 34 32 31 29 27 24 22 20 20 19 18 19 19 19 19 19 18 18 17 16 15 16 16 15 16 16 16
40 41 42 40 40 40 38 38 38 35 35 38 37 35 35 35 34 32 30 28 26 23 22 22 21 20 20 20 20 20 20 20 19 17 17 16 16 16 16 16 16 16
40 40 41 40 40 41 39 39 39 38 38 39 38 37 37 36 34 33 31 30 28 25 24 24 24 23 23 23 22 22 21 21 20 19 18 17 17 16 16 16 17 16
39 39 38 37 38 40 40 40 40 40 41 41 40 38 38 36 33 32 32 31 30 28 27 27 26 25 24 24 23 22 22 21 21 20 19 18 17 17 16 16 16 16
39 38 37 35 34 33 33 37 41 42 42 42 41 39 39 38 35 34 34 33 31 30 29 28 27 25 25 24 23 23 22 22 22 21 19 17 17 17 17 16 16 16
37 37 35 34 33 28 24 27 36 41 41 41 41 40 39 39 39 37 36 34 33 33 32 30 28 27 26 25 24 24 23 22 22 22 19 17 17 17 17 16 16 16
35 34 33 33 33 29 22 21 26 31 32 32 37 40 40 39 40 39 38 37 36 35 34 32 29 28 27 25 24 24 23 22 23 24 23 20 18 17 17 17 17 17
29 29 30 31 28 23 19 20 22 24 24 24 27 34 40 41 41 40 40 39 37 36 34 31 29 28 27 24 24 23 21 21 23 24 24 23 21 19 19 18 18 18
25 25 26 25 20 15 15 19 22 22 24 24 23 25 30 34 39 42 42 40 38 36 32 30 28 27 25 23 21 18 16 17 20 22 24 24 23 21 20 20 20 20
25 24 22 18 15 13 15 18 21 22 24 25 25 24 24 25 30 38 42 41 38 35 33 30 27 25 24 22 18 14 12 13 17 20 23 25 24 22 20 20 20 21
21 19 17 15 13 14 15 14 17 19 21 23 26 27 27 27 26 29 38 43 41 36 34 31 27 25 24 21 16 13 11 12 15 18 21 24 24 22 20 19 19 20
18 15 14 14 13 14 13 12 14 17 19 22 25 25 28 30 26 25 34 44 44 37 33 30 26 25 26 22 15 12 11 10 12 15 19 22 24 22 20 18 17 18
17 16 14 14 14 13 13 13 15 16 19 23 25 23 23 25 25 25 30 39 40 37 35 33 28 24 23 20 14 13 12 10 10 15 19 21 23 21 17 16 16 17
15 14 13 13 13 12 12 13 14 15 17 21 24 21 18 20 25 26 26 31 35 35 34 33 28 23 22 21 18 16 16 14 13 17 21 21 20 17 15 15 15 15

ECMWFNIL_850_spd_042.txt.gz
Wind_Speed
32 31 30 29 28 26 25 25 24 23 23 22 21 20 20 19 18 19 20 17 12 12 11 10 11 11 10 10 13 16 15 12 10 9 8 9 8 7 8 9 8 9
32 31 31 30 29 28 27 26 26 25 24 23 21 20 19 18 19 20 21 19 14 11 11 11 11 11 11 11 11 15 16 13 11 10 8 8 9 8 9 9 9 9
33 32 31 31 30 29 29 28 27 26 25 23 21 20 19 18 19 20 21 21 17 12 11 12 11 11 11 12 11 12 14 13 12 12 10 10 9 9 9 9 10 10
34 33 32 31 30 30 30 29 29 28 26 25 23 22 22 22 22 20 20 21 18 14 13 12 12 11 11 12 12 12 12 12 11 13 13 12 11 11 10 10 10 10
35 34 32 31 31 30 30 30 30 30 28 27 25 25 25 25 24 22 21 21 19 16 15 14 13 13 12 12 13 14 13 11 10 12 14 14 12 11 11 11 11 12
37 36 34 33 32 31 31 32 31 31 30 28 27 27 27 27 26 24 22 21 20 18 17 17 16 14 13 13 14 15 15 13 11 12 14 15 14 12 9 9 11 12
39 38 37 36 34 33 33 33 32 32 31 30 29 29 29 30 28 26 24 22 21 20 19 19 18 16 14 14 14 15 16 15 14 13 13 13 14 13 10 10 12 14
41 40 39 38 37 35 35 34 33 33 32 31 30 30 31 32 29 26 25 24 22 21 21 20 19 18 16 15 15 15 16 17 17 16 14 13 13 13 13 14 15 15
42 41 40 39 39 38 37 36 35 34 33 32 32 32 33 33 30 26 25 25 24 23 22 22 20 20 18 16 15 16 17 17 18 19 18 14 12 12 14 15 15 16
43 42 41 40 40 39 38 38 37 36 34 34 33 33 34 34 31 28 27 27 26 25 24 23 23 22 20 18 16 16 16 17 18 20 20 17 13 13 14 14 15 16
43 43 42 42 41 40 40 39 38 38 37 36 35 35 35 35 32 30 31 30 28 27 26 25 26 25 22 19 18 17 17 17 19 20 20 18 15 14 14 15 15 16
44 44 43 43 42 41 40 39 38 37 37 37 38 37 37 37 35 34 34 33 30 29 29 27 27 26 23 20 20 19 18 19 20 20 20 18 16 15 16 17 17 18
45 45 44 43 42 41 40 39 38 36 36 37 37 37 38 39 38 38 37 36 32 31 30 28 27 27 25 23 22 20 20 20 21 21 20 18 17 16 17 18 18 19
45 44 44 43 43 42 41 38 37 36 36 35 35 36 36 34 35 39 40 37 35 33 31 28 28 28 27 26 24 22 21 22 22 22 21 20 19 18 18 18 18 17
44 43 44 43 42 42 41 40 38 36 36 36 35 35 32 29 31 38 41 39 37 35 32 30 29 30 30 28 27 25 24 23 23 23 22 21 20 18 18 17 17 17
43 43 43 43 42 42 41 41 39 37 36 36 36 35 33 31 33 38 40 40 39 36 34 32 32 32 32 30 27 26 25 25 24 23 22 22 21 20 19 18 17 16
41 42 42 42 43 42 40 40 39 38 36 36 37 37 35 35 37 38 39 39 39 38 36 35 34 35 34 31 28 27 27 26 24 22 23 22 22 21 20 19 17 17
40 41 41 41 41 40 39 39 38 38 37 36 38 38 37 37 38 39 38 37 37 38 37 37 36 36 35 32 28 27 27 26 23 22 23 23 23 22 21 18 17 17
40 40 40 39 39 38 37 37 37 37 36 36 36 36 36 36 37 38 37 36 35 36 37 36 36 36 35 30 26 26 27 25 23 23 24 24 23 21 19 18 16 16
40 39 38 37 37 36 34 33 35 35 34 34 35 35 35 35 36 37 36 35 35 34 34 35 36 37 34 28 25 26 26 24 24 24 24 23 21 20 19 18 16 16
39 38 36 35 34 32 30 29 30 31 31 32 33 34 35 35 35 36 35 35 34 33 33 34 35 35 32 28 26 26 24 23 23 23 23 22 22 22 21 19 17 17
40 37 35 32 31 29 27 25 26 26 26 29 32 32 32 33 32 33 35 35 34 33 32 32 34 34 30 25 24 23 22 22 22 22 22 22 22 24 22 19 17 18
38 36 33 29 27 25 24 24 25 24 23 27 30 31 31 30 29 29 32 35 35 33 32 31 32 33 29 24 23 22 20 20 21 22 22 21 23 24 21 16 16 18
32 32 30 26 23 23 22 21 21 23 24 26 29 30 30 29 28 26 29 32 33 33 32 31 31 32 29 25 25 25 21 18 18 19 19 18 19 20 18 15 15 16
27 28 28 24 21 22 21 18 18 20 21 23 26 28 28 27 27 27 28 30 30 29 29 29 30 30 27 25 26 24 20 18 18 17 16 14 13 15 17 16 13 13
23 25 25 23 21 21 19 16 16 16 17 19 22 24 26 27 27 27 28 29 28 26 26 27 27 28 28 28 28 23 19 18 19 17 15 14 15 16 16 14 12 12

ECMWFNIL_850_spd_045.txt.gz
Wind_Speed
35 34 34 34 34 32 31 29 29 30 30 29 27 25 24 23 22 20 19 17 15 14 14 12 12 12 12 13 14 14 12 11 10 12 14 13 13 12 11 12 12 11
36 36 35 35 35 34 33 31 30 29 30 28 26 24 23 23 22 21 20 18 17 17 15 13 12 13 13 15 15 15 14 13 12 13 14 15 14 13 12 12 12 13
37 37 37 37 36 35 35 33 31 31 30 28 26 24 24 23 23 22 21 19 18 18 16 14 14 13 13 15 16 16 15 15 15 15 15 16 15 14 13 12 12 13
39 38 39 38 37 36 35 35 34 32 31 29 27 26 25 24 24 24 23 20 19 18 17 15 15 15 14 14 15 16 17 16 16 16 16 16 16 16 14 13 12 12
39 39 40 39 38 36 36 36 35 34 33 31 28 27 26 26 26 26 24 22 20 19 18 18 17 17 16 15 15 15 16 16 17 18 18 17 16 16 15 15 14 13
40 40 40 39 38 37 37 37 36 35 34 32 30 29 28 28 28 28 26 24 22 19 18 19 19 19 19 18 16 15 15 16 17 19 19 18 17 16 16 16 15 15
41 40 40 39 38 38 38 37 37 36 35 33 31 30 30 30 30 30 28 25 23 21 20 20 20 20 20 20 19 17 16 16 18 19 20 19 18 17 16 16 16 15
43 41 40 40 38 38 38 38 38 37 36 34 33 33 32 32 32 31 29 27 25 24 23 23 22 21 21 22 21 19 18 18 19 19 19 20 20 20 18 17 17 16
44 43 42 41 40 39 39 38 38 38 37 36 35 34 34 34 34 33 31 29 28 27 26 25 24 23 22 23 23 21 19 18 19 20 19 20 21 21 20 19 18 16
46 45 44 43 42 41 40 39 38 38 38 38 37 36 35 35 35 35 33 32 31 31 29 28 26 25 25 25 23 21 19 18 19 20 20 20 21 21 21 21 19 17
48 47 46 45 44 43 41 40 39 38 38 38 38 37 37 37 37 37 36 35 34 33 32 30 28 27 27 25 23 20 18 18 20 22 22 21 20 20 21 21 19 18
50 49 48 47 46 44 43 42 40 40 40 40 40 39 39 38 39 39 38 37 36 35 34 32 30 29 28 24 22 20 16 18 21 23 24 24 22 21 22 21 20 19
51 51 49 48 47 45 44 43 43 42 42 41 41 41 41 41 40 40 40 38 37 36 35 34 32 31 29 24 23 20 16 19 23 24 25 27 25 24 23 22 21 20
52 51 50 49 47 46 45 44 44 44 44 43 43 42 42 42 42 41 40 39 38 37 37 35 33 33 32 27 24 23 20 20 23 24 26 28 29 27 25 24 22 20
51 51 51 49 48 47 46 46 45 45 45 44 44 43 43 43 42 42 41 40 40 39 38 38 36 36 36 32 27 26 24 22 23 26 28 28 30 30 27 24 23 21
50 51 51 50 49 48 47 47 46 46 46 45 45 44 43 43 43 43 42 42 42 41 40 39 39 38 38 36 31 29 27 24 24 28 30 29 30 29 27 25 23 21
50 51 51 51 50 49 48 47 47 46 45 45 44 43 42 42 43 43 43 43 42 41 40 40 40 40 40 39 34 30 28 25 24 28 30 29 30 29 27 25 23 20
50 50 51 51 51 50 49 47 46 45 44 44 43 43 41 41 42 42 43 42 42 41 40 39 40 40 41 40 36 32 28 25 25 28 30 29 30 30 28 25 22 19
50 50 49 50 50 50 48 47 46 45 44 44 43 42 41 41 41 41 41 41 41 41 40 38 37 39 41 41 37 34 30 26 27 29 29 29 29 29 27 25 23 21
50 49 48 48 48 48 48 47 46 45 44 43 42 41 41 41 41 41 40 40 40 40 39 36 35 38 41 40 39 36 30 26 27 29 29 29 29 29 28 26 24 23
51 49 47 46 46 46 46 46 45 44 43 43 42 42 41 40 40 40 40 40 40 40 38 35 34 36 39 40 39 35 27 23 26 28 30 32 31 30 29 27 24 22
51 49 47 45 45 44 45 45 44 43 42 42 41 40 39 38 37 38 39 39 40 39 37 34 33 35 36 36 35 32 28 27 28 28 32 36 34 30 29 27 25 24
51 49 47 45 44 44 44 43 42 41 40 40 40 40 39 38 37 37 37 38 38 36 34 33 33 33 32 31 33 34 34 33 30 29 34 37 34 31 29 26 25 23
50 49 47 45 44 43 42 41 39 39 39 39 39 40 40 40 39 37 36 36 36 34 33 33 32 31 30 30 33 36 36 31 27 31 37 36 32 31 29 27 26 24
49 48 46 45 43 41 39 36 35 36 36 36 37 38 39 40 39 37 36 35 33 33 32 32 31 31 31 31 31 33 32 28 25 31 38 37 35 33 30 28 27 25
47 46 45 43 41 37 34 32 33 34 34 34 34 35 37 37 37 36 35 33 32 32 32 31 30 30 31 30 28 27 27 25 25 31 35 37 36 34 31 28 25 23

ECMWFNIL_850_spd_048.txt.gz
Wind_Speed
42 42 41 39 38 35 34 33 33 33 32 31 30 29 27 26 25 24 23 21 18 16 13 11 13 16 17 17 17 15 13 13 14 16 18 18 17 16 17 16 15 15
43 43 42 41 40 38 36 35 34 34 33 32 31 30 28 27 26 25 25 23 20 18 15 13 14 17 19 18 17 15 14 14 14 15 17 17 17 18 18 17 16 16
44 44 44 42 41 39 37 36 35 34 34 33 32 31 30 28 27 27 26 24 22 20 16 15 16 19 21 20 18 16 14 14 13 14 15 16 18 19 19 18 17 17
45 45 44 43 41 40 38 37 37 36 35 34 34 33 31 30 29 29 27 26 25 22 18 16 18 20 22 22 20 17 16 14 14 14 15 15 17 20 20 19 18 18
46 45 44 43 42 41 39 39 39 38 37 36 35 34 33 32 31 31 29 28 26 24 21 19 19 21 23 23 21 19 18 17 16 16 17 17 17 20 21 21 19 19
45 45 45 44 43 42 41 40 40 39 38 37 36 35 34 34 33 32 31 30 28 26 23 21 20 22 23 24 23 22 20 19 19 18 19 18 18 20 22 22 21 20
45 46 46 45 44 43 42 42 41 40 39 38 38 37 36 35 34 33 32 31 29 27 25 22 22 22 23 24 24 24 22 22 21 20 20 20 20 21 23 23 23 21
44 45 45 46 45 44 44 43 42 41 40 40 39 39 38 36 35 35 34 33 31 29 27 25 24 24 24 24 25 25 24 24 23 22 22 22 22 22 24 24 23 22
44 44 45 46 46 45 45 44 44 43 42 41 41 40 39 38 37 36 35 34 33 32 29 27 26 26 25 25 25 25 25 25 25 24 23 24 23 23 23 24 23 22
44 44 45 46 46 46 46 45 45 44 43 42 42 41 40 39 38 37 36 36 35 34 32 30 29 28 28 27 25 25 26 26 26 25 24 24 24 23 23 24 23 22
44 44 45 46 46 47 46 46 46 45 44 43 43 42 41 40 40 39 38 38 37 36 34 32 31 30 30 28 26 25 26 26 26 25 24 24 24 23 23 23 24 23
45 44 45 46 46 47 46 46 46 46 45 44 43 43 42 41 41 40 40 39 38 37 36 34 33 33 32 30 28 26 27 27 27 26 25 24 24 24 24 23 24 24
46 45 44 44 46 46 46 46 46 46 45 45 44 43 43 42 42 41 40 40 39 38 37 36 35 35 34 33 31 28 27 28 28 26 24 23 24 25 24 24 24 23
47 45 44 43 44 46 46 47 47 47 46 45 44 44 43 43 42 41 41 40 40 39 39 38 37 37 37 36 34 32 29 28 29 27 24 23 23 24 25 25 24 24
47 46 45 44 44 46 48 48 48 48 47 46 45 45 44 43 42 42 41 41 41 40 40 40 40 40 40 38 37 34 31 28 28 27 24 22 23 24 26 26 25 25
48 47 46 46 46 47 48 49 49 48 48 47 46 45 44 44 43 43 43 42 42 42 42 42 42 42 42 40 38 35 32 28 28 28 26 24 24 24 25 27 26 26
48 48 48 47 47 47 48 49 49 49 49 48 47 47 45 45 45 44 44 43 43 43 43 44 44 43 43 41 39 36 31 29 30 31 29 27 26 25 25 26 27 27
49 48 49 48 48 48 49 49 50 50 50 49 48 47 47 46 46 46 45 44 44 44 44 45 45 44 43 42 40 37 32 30 32 33 30 29 27 26 26 28 28 28
49 49 49 49 49 49 49 49 50 50 50 50 49 48 47 47 46 46 46 45 45 45 45 45 45 44 43 42 42 40 34 31 32 32 31 30 29 28 29 30 30 29
50 50 50 50 49 49 48 49 50 50 50 50 49 48 47 47 47 47 46 46 46 46 46 45 45 44 43 42 43 42 36 31 30 32 33 31 29 30 31 30 30 29
50 50 50 50 49 49 49 49 50 50 50 49 49 48 48 48 48 47 47 47 47 46 45 45 44 43 42 41 41 42 39 33 28 29 33 33 30 31 32 30 29 28
52 51 50 50 49 49 49 49 49 50 50 49 49 49 49 48 48 47 47 47 46 45 45 44 43 42 41 40 38 38 39 36 29 26 30 33 33 32 30 29 28 27
53 52 51 50 50 50 49 49 49 49 49 49 49 49 49 49 49 48 47 46 45 45 44 43 42 42 41 39 36 34 34 33 31 29 29 31 32 31 29 28 28 27
54 53 52 51 51 51 50 49 48 47 47 47 48 49 49 48 48 47 46 45 44 44 42 41 41 41 40 38 35 30 28 27 29 31 31 30 29 30 29 28 28 27
55 55 53 53 52 51 50 49 48 46 45 45 46 47 47 46 46 46 45 44 43 42 41 40 41 40 39 37 32 27 25 25 28 31 31 29 28 29 30 29 28 27
56 56 55 54 54 52 50 49 47 46 45 45 45 44 44 45 45 45 44 43 42 41 40 40 41 38 36 34 28 24 25 26 28 29 28 27 28 29 29 30 29 27

ECMWFNIL_850_spd_051.txt.gz
Wind_Speed
43 43 42 40 38 37 36 35 34 34 34 32 31 29 28 27 26 26 26 24 22 19 17 16 15 14 14 15 15 15 15 15 16 18 19 18 17 17 17 17 16 16
43 43 43 42 40 38 38 36 35 35 35 34 32 30 28 27 27 26 26 24 22 20 18 17 16 16 15 16 16 16 16 16 17 18 19 18 17 17 17 17 17 17
45 44 43 42 41 40 39 38 37 36 36 35 34 32 30 29 28 28 27 25 24 22 20 19 18 17 17 17 18 18 17 17 17 19 19 17 17 18 18 18 18 18
46 45 44 42 40 40 40 40 39 38 37 36 35 34 32 31 30 29 28 27 25 24 23 22 20 19 19 19 20 19 19 19 19 20 19 18 18 19 19 19 19 19
46 45 44 42 40 40 40 41 42 40 39 38 36 35 34 33 31 31 30 29 27 27 26 24 23 22 21 21 21 21 20 20 21 21 21 20 19 20 20 21 21 21
46 46 45 43 41 41 41 42 42 42 41 40 38 37 36 34 33 32 31 30 29 28 28 27 25 24 24 23 23 22 22 22 22 23 23 21 21 21 21 22 22 22
48 46 45 44 42 42 42 42 43 43 43 41 40 39 38 36 35 33 32 31 30 30 30 29 27 26 26 25 24 24 24 23 24 24 24 23 22 21 21 21 22 23
48 46 45 44 43 42 42 42 43 44 43 43 42 41 40 39 37 35 34 33 32 32 32 30 29 27 27 27 26 26 26 25 25 25 26 25 23 23 22 22 21 22
49 47 46 45 44 43 42 42 43 43 44 44 43 41 41 40 39 37 36 35 34 34 33 32 31 30 29 29 28 27 27 27 26 26 26 26 25 24 23 22 22 23
50 49 47 46 45 43 42 41 42 43 43 44 43 42 41 41 40 39 38 37 36 35 34 34 33 32 31 31 29 28 28 28 28 27 27 27 26 25 25 24 24 24
52 50 49 48 45 43 41 40 41 42 42 43 43 43 42 41 41 41 40 39 38 37 36 35 35 34 33 32 31 30 29 28 29 28 28 28 27 26 26 25 25 24
53 52 50 48 46 43 41 40 40 41 41 42 42 42 42 42 42 42 41 41 40 39 38 37 36 35 35 34 32 31 30 30 29 29 29 29 29 28 27 26 25 25
54 53 51 49 46 43 41 40 39 40 41 41 41 42 42 42 42 43 42 42 41 40 39 39 37 37 37 36 34 33 32 31 31 30 29 29 29 29 28 27 26 25
54 52 50 48 45 43 41 40 39 39 40 40 41 41 42 42 42 43 43 42 42 41 41 40 39 39 38 38 37 36 34 33 32 31 30 30 29 29 29 29 28 26
53 52 51 49 46 44 43 42 41 40 39 40 40 41 41 41 42 42 43 43 43 42 41 41 41 41 41 39 38 37 36 35 34 32 31 31 29 28 29 30 29 28
53 52 51 49 48 47 45 43 42 40 40 40 40 41 40 41 41 42 43 43 42 42 42 42 43 42 42 41 39 37 36 36 35 33 32 32 31 29 28 29 29 28
53 52 51 50 50 48 46 45 43 42 41 41 41 41 40 40 41 42 43 43 42 42 42 43 43 43 43 41 39 38 36 36 35 34 33 33 33 31 29 29 29 28
52 52 51 51 50 50 48 46 44 43 42 42 42 42 42 41 42 42 43 42 42 43 43 43 43 43 43 42 40 38 36 35 36 35 33 34 35 33 31 30 30 28
52 51 51 50 50 50 49 47 46 45 44 44 43 43 43 43 43 43 43 43 44 44 44 44 44 44 43 42 41 39 36 36 36 34 33 35 36 35 33 31 31 30
52 52 51 50 50 50 50 49 48 46 45 45 44 44 45 45 44 44 43 44 44 45 45 45 45 45 44 43 43 41 38 35 33 33 34 35 36 37 36 33 32 31
53 52 51 50 50 51 50 50 49 48 47 46 45 45 45 45 46 45 44 44 44 45 46 47 47 46 45 45 44 43 41 36 31 32 35 35 36 39 38 34 33 32
53 52 52 51 51 51 51 51 50 49 49 48 47 46 45 46 46 46 45 45 45 46 47 47 47 46 45 45 44 43 42 38 35 33 33 34 36 37 36 34 33 31
53 52 52 51 51 52 52 52 51 50 49 49 48 48 47 46 46 46 46 45 45 46 47 46 46 45 44 43 44 43 40 38 38 37 35 33 33 32 30 31 32 32
53 53 52 51 51 52 53 52 51 50 49 49 49 49 47 46 45 45 45 46 46 47 46 45 45 43 42 42 43 42 39 35 36 36 33 30 31 28 24 24 27 30
53 53 52 52 52 53 53 52 51 50 49 48 48 48 46 45 45 45 45 46 47 46 45 44 44 42 41 41 41 41 39 34 33 34 30 24 26 28 23 20 23 27
52 52 53 53 53 53 53 53 51 49 48 48 48 47 46 45 45 45 46 46 46 45 43 43 43 41 40 40 40 40 39 34 30 31 27 19 20 24 22 20 23 26

ECMWFNIL_850_spd_054.txt.gz
Wind_Speed
37 36 36 36 35 34 33 32 31 31 31 31 30 29 27 25 24 24 26 25 24 22 20 18 18 17 15 15 15 16 15 14 13 13 15 15 15 15 15 15 13 13
39 38 37 37 36 35 33 32 31 31 31 31 31 30 29 27 26 25 26 26 25 23 20 19 19 18 16 16 16 16 16 15 14 15 16 16 16 16 17 16 15 14
42 40 39 38 37 35 34 33 32 31 31 30 31 31 31 30 28 27 26 26 26 23 21 20 20 19 18 17 17 17 17 16 15 15 16 16 16 17 17 17 16 15
43 42 41 39 37 36 35 34 34 33 32 32 31 31 31 31 30 29 27 27 27 25 22 21 21 20 19 18 18 19 19 18 16 16 17 17 17 17 18 18 17 16
43 42 41 40 38 36 36 36 36 34 34 33 32 31 31 31 31 30 29 28 28 27 24 23 22 22 21 20 20 20 20 20 18 17 18 18 18 18 19 19 18 17
45 43 42 41 39 38 38 37 36 35 35 34 34 33 32 32 32 31 31 30 29 28 27 25 24 23 23 22 22 22 22 22 20 19 19 19 19 19 19 20 19 18
47 45 43 42 41 40 39 37 37 37 36 35 35 35 34 33 33 32 32 31 31 30 29 27 25 24 24 24 24 24 24 23 22 21 21 20 20 20 20 21 21 20
47 46 45 43 42 42 41 39 38 38 37 36 36 36 36 35 35 34 33 32 32 31 30 29 27 26 25 25 25 25 25 25 25 23 23 22 21 21 21 21 22 22
48 47 46 45 44 44 43 40 39 38 38 38 37 36 37 37 36 36 35 35 34 32 31 30 29 27 27 27 27 27 26 26 26 25 24 23 23 23 22 22 23 23
50 49 48 48 47 46 44 42 39 38 38 39 38 37 37 38 38 37 37 37 37 35 34 32 31 30 29 29 29 28 27 27 27 26 26 24 24 23 23 23 24 24
51 50 50 50 49 48 46 43 41 40 39 39 39 38 38 38 39 39 38 39 39 38 36 34 33 32 31 30 30 29 28 28 27 27 26 26 25 24 23 24 24 24
52 52 52 51 50 48 46 44 42 41 40 40 39 39 39 39 40 40 40 40 39 39 38 36 35 34 33 32 31 30 29 28 28 28 27 27 26 25 24 23 24 24
53 53 52 51 50 48 46 45 43 42 42 41 40 39 39 40 41 42 41 41 40 40 39 37 36 35 35 33 32 31 29 29 29 29 28 27 27 26 25 24 24 24
53 52 51 50 49 48 46 45 44 43 42 41 40 40 40 41 42 42 42 41 41 41 40 39 37 37 36 35 34 32 31 30 30 29 29 28 28 27 25 25 24 24
52 52 51 50 49 48 47 46 45 44 43 42 41 41 41 41 41 42 42 42 42 42 41 40 39 39 37 36 35 34 32 31 31 30 29 29 28 27 26 26 26 24
53 52 51 51 50 49 47 46 45 44 44 43 42 42 41 41 41 42 43 43 43 43 42 42 41 40 38 36 35 34 32 31 31 30 29 28 28 28 28 28 27 25
53 53 52 51 50 49 48 47 46 45 45 44 43 42 41 41 42 43 43 43 43 43 43 42 42 40 38 37 36 34 32 31 31 31 29 27 27 28 28 29 28 26
53 53 52 51 50 49 49 48 47 46 46 45 45 44 43 42 43 44 44 43 44 44 43 43 42 39 37 37 36 33 31 30 30 30 29 27 26 27 28 28 28 28
53 53 53 52 51 50 49 49 49 48 47 47 46 45 44 44 44 44 44 44 44 44 44 43 41 39 37 37 36 33 30 29 29 30 29 27 25 25 27 27 28 30
53 52 53 52 51 50 50 50 50 49 47 47 47 47 47 46 45 45 45 45 45 45 44 43 41 40 38 37 35 32 30 29 29 30 29 26 24 24 25 27 30 32
53 53 53 52 51 51 50 51 51 49 48 48 48 48 48 48 47 46 46 46 45 45 44 43 43 41 40 38 36 33 31 30 30 31 28 25 24 23 25 29 33 33
53 53 53 52 51 51 51 51 51 50 49 49 49 49 49 49 48 47 47 47 46 46 45 45 45 44 42 40 37 35 33 31 31 30 28 26 25 24 27 32 33 31
52 52 53 52 51 51 51 51 51 50 50 50 49 49 50 50 50 49 48 48 47 47 47 47 47 46 44 42 39 37 35 33 31 30 29 28 27 26 28 31 31 30
51 51 52 52 51 51 50 50 50 50 50 50 50 50 50 50 49 49 48 48 48 48 47 47 48 47 46 44 41 38 36 33 31 28 27 28 28 28 30 32 32 31
49 50 51 51 51 50 49 49 49 49 49 49 49 49 49 49 49 49 49 48 48 48 47 47 48 47 46 45 42 39 36 33 31 28 27 27 28 30 32 32 32 31
49 49 50 50 50 49 48 48 48 49 50 50 49 49 49 49 49 49 49 48 48 47 47 48 47 47 47 45 42 39 36 33 31 29 28 27 27 28 30 29 28 27

ECMWFNIL_850_spd_057.txt.gz
Wind_Speed
34 34 34 35 34 34 33 32 31 30 30 30 29 27 26 25 24 23 23 22 22 21 20 19 19 18 17 16 16 15 14 13 12 11 11 11 11 11 11 11 10 9
35 34 34 34 34 34 33 33 32 31 30 29 28 27 27 26 24 24 23 22 22 21 20 21 20 19 18 17 17 16 15 14 13 12 12 12 12 12 12 12 11 11
36 35 35 34 34 33 33 33 32 31 30 29 29 28 27 27 26 25 24 23 22 21 21 22 21 20 20 19 18 17 16 15 14 12 12 13 13 13 13 13 12 12
38 37 36 35 34 33 32 33 33 32 31 30 30 28 27 27 27 27 26 25 24 22 22 22 22 21 21 20 19 19 18 17 15 14 13 14 14 14 13 13 13 13
40 39 38 37 36 34 34 33 33 32 32 32 30 29 28 27 27 27 27 27 26 25 24 24 23 23 22 21 21 20 20 19 17 16 15 15 15 15 15 14 13 13
43 41 40 40 38 37 36 35 34 33 33 32 32 31 30 28 28 28 27 27 27 26 26 26 25 24 23 23 22 22 21 20 19 17 16 16 15 16 16 15 15 15
44 43 42 42 41 40 39 38 36 35 33 33 33 33 32 31 30 29 29 28 28 28 28 28 27 26 25 24 24 23 23 22 21 19 18 17 16 16 17 17 17 16
44 44 43 43 43 43 42 40 38 36 34 34 34 34 33 33 32 32 31 30 30 30 30 29 29 28 27 26 26 25 25 24 23 22 20 19 18 17 17 17 18 18
44 43 43 42 43 43 43 42 40 38 36 35 35 34 34 35 34 34 34 33 32 32 31 31 31 30 29 29 28 27 26 26 25 23 22 21 20 18 17 17 18 19
45 44 43 43 43 43 43 42 41 39 37 36 35 35 35 36 35 36 36 36 35 35 34 34 33 32 31 30 30 29 28 27 26 24 23 22 21 20 18 18 19 20
46 45 45 45 44 44 43 42 41 40 39 38 37 36 36 36 36 37 38 38 38 38 37 36 35 34 33 32 31 31 29 28 27 25 24 23 22 21 20 20 19 20
48 47 47 46 45 45 43 42 42 42 40 39 38 37 37 36 37 38 39 40 39 39 39 38 37 37 36 34 33 32 31 29 28 27 26 25 24 23 23 22 21 21
49 48 48 47 46 45 44 43 42 42 42 41 40 39 38 38 37 38 40 40 40 40 40 39 39 39 38 37 36 34 33 31 30 29 28 27 26 25 24 24 23 22
50 48 48 48 47 46 44 44 43 43 43 42 42 41 40 39 38 38 39 40 40 41 42 41 40 41 41 40 38 37 35 33 32 31 30 29 27 26 26 26 25 25
49 49 49 49 48 48 46 45 45 44 44 44 43 42 42 41 40 39 39 40 40 41 43 43 43 43 43 42 40 38 37 35 35 33 32 30 28 27 27 28 27 27
49 50 50 50 49 49 47 46 46 45 45 45 44 43 43 42 41 41 42 41 40 41 42 44 45 45 44 43 41 39 37 36 36 35 34 32 30 29 29 29 29 30
50 50 50 50 49 48 48 47 46 45 45 45 45 44 43 43 42 43 43 43 42 42 43 45 46 46 45 43 42 40 38 37 37 36 35 34 32 30 30 29 30 31
50 50 50 49 49 48 48 47 46 46 46 46 46 45 44 44 44 44 44 44 44 43 44 45 46 46 45 44 42 41 39 38 38 37 36 35 33 31 31 30 31 31
49 50 49 49 49 48 48 47 46 47 47 47 46 46 46 46 45 45 45 45 45 45 45 45 45 45 45 43 42 41 40 38 38 38 37 37 35 32 31 31 31 31
49 49 49 49 49 49 48 48 47 47 47 47 47 47 47 47 46 46 46 46 46 46 46 45 45 45 45 43 42 41 40 39 38 38 37 38 36 33 32 31 31 32
48 49 49 49 49 49 49 49 48 48 48 48 48 48 48 47 46 46 46 46 46 47 47 46 45 45 45 43 42 41 40 38 38 38 38 38 36 34 32 31 32 32
49 49 49 49 49 50 50 50 49 49 48 48 49 49 48 47 47 47 48 47 46 47 47 47 46 46 46 44 41 40 39 38 38 38 38 38 36 34 32 31 32 33
47 48 49 49 49 50 50 50 50 49 49 49 49 49 50 49 48 48 48 48 48 49 48 48 47 47 47 45 42 40 39 39 38 39 39 38 36 34 32 32 33 34
45 46 47 48 48 49 50 50 50 50 50 49 48 49 50 50 49 49 49 49 49 49 49 48 48 48 47 45 42 40 40 40 39 39 39 38 37 35 33 33 34 35
44 46 46 47 48 48 49 50 50 50 50 50 49 50 51 51 51 52 51 50 51 51 50 49 48 47 47 47 44 41 41 41 40 40 40 39 38 36 34 34 35 37
44 44 45 45 46 46 47 47 47 48 49 49 49 51 51 52 53 53 53 53 51 50 50 50 49 49 49 48 46 44 42 41 42 42 41 40 38 37 36 36 37 38

ECMWFNIL_850_spd_060.txt.gz
Wind_Speed
39 38 38 37 36 35 34 33 31 31 30 30 30 29 28 27 26 26 26 25 24 24 23 22 21 18 15 15 15 14 12 11 10 9 9 9 9 10 11 11 11 11
40 39 38 38 37 36 34 33 33 32 31 30 30 30 29 29 28 27 26 26 25 24 23 22 21 20 18 17 16 15 14 13 12 10 10 10 10 11 12 12 11 12
40 39 39 38 37 36 35 34 33 32 31 30 30 31 31 30 30 28 27 26 25 24 24 22 21 20 19 19 18 17 16 16 14 12 11 11 12 12 13 13 13 13
40 39 38 38 37 36 35 34 34 33 32 31 31 31 31 31 31 30 28 27 26 25 24 23 21 20 20 20 20 19 18 17 17 14 12 13 14 14 13 14 15 14
41 40 39 38 37 36 35 35 34 34 33 32 32 32 32 32 32 32 31 29 28 26 25 25 23 22 21 22 22 21 20 19 18 17 16 15 16 15 15 16 16 15
42 41 40 39 38 37 37 36 35 34 33 32 32 33 33 33 33 33 32 31 29 28 27 27 26 24 23 23 23 22 22 21 20 19 18 17 17 16 17 18 18 17
44 43 41 40 39 39 38 37 36 35 34 32 32 33 33 34 34 34 33 32 31 30 29 29 28 27 25 25 25 24 23 22 21 22 21 20 19 19 18 19 19 19
45 44 42 41 41 41 40 39 38 36 34 33 33 33 34 34 34 34 34 33 32 31 30 30 30 29 27 27 27 25 24 24 23 24 24 22 21 21 20 20 20 19
46 45 44 43 42 42 41 40 39 37 36 35 35 34 34 35 35 35 34 34 34 33 32 31 31 30 29 29 29 27 26 25 25 25 26 25 24 23 22 21 21 20
47 46 45 44 44 44 43 42 41 39 38 37 36 36 36 36 35 35 36 36 35 35 34 33 32 32 31 31 31 29 28 27 27 26 27 26 26 25 24 23 23 21
46 47 46 46 46 45 44 43 42 42 41 39 38 38 38 38 36 36 37 38 38 37 36 35 34 34 33 32 32 31 30 29 29 28 28 28 27 27 26 26 25 23
45 45 45 45 45 45 45 44 43 44 44 42 40 39 39 40 39 38 38 39 39 39 38 37 37 36 35 34 33 33 33 32 31 30 29 29 29 28 28 28 27 25
45 44 43 43 43 44 44 44 43 44 44 43 41 40 40 40 41 40 39 39 39 40 39 39 39 38 38 37 36 35 35 34 33 32 31 30 30 29 30 30 29 27
46 44 43 43 43 42 42 43 43 43 43 43 42 41 40 40 41 41 40 40 39 39 40 40 40 40 40 40 38 38 38 37 35 34 32 31 31 31 31 31 31 30
47 46 46 45 45 44 44 43 43 43 43 43 43 42 41 40 40 41 41 41 39 39 39 40 41 42 43 42 41 40 40 39 38 37 35 33 32 32 32 33 33 32
46 46 47 47 47 47 46 44 44 44 44 45 44 44 43 42 41 41 43 43 41 40 39 40 42 44 44 44 43 42 41 41 40 39 38 36 35 34 34 34 34 34
45 46 47 48 48 48 48 47 46 46 47 47 46 45 44 43 43 43 43 44 44 42 41 41 42 44 44 45 44 43 42 41 41 41 40 39 38 37 36 35 35 36
44 45 46 46 47 48 48 47 46 47 48 48 48 47 45 44 44 44 44 45 46 45 44 44 44 43 44 44 43 43 42 42 41 42 41 41 40 40 38 37 36 37
42 44 45 45 46 46 46 46 46 47 48 49 48 47 46 46 46 45 45 45 47 48 47 46 45 45 44 44 43 42 41 41 41 42 42 43 43 42 41 39 38 38
42 43 43 43 44 45 45 45 46 46 47 48 48 48 48 48 48 47 46 46 47 48 48 47 47 47 46 44 43 42 41 39 39 41 43 44 45 44 43 42 39 38
42 42 42 42 43 44 45 45 45 45 46 47 48 49 49 48 48 47 47 47 47 48 48 48 48 48 47 45 44 42 41 39 39 40 42 44 46 46 46 44 41 40
41 41 42 42 43 44 44 44 44 45 45 46 47 48 48 48 48 48 47 47 47 47 48 49 48 48 47 46 45 43 41 41 40 40 41 44 46 46 46 45 43 41
41 42 42 42 43 44 44 43 43 44 45 45 46 47 48 49 48 48 48 47 47 48 48 49 49 49 48 47 45 44 43 43 43 41 42 44 45 45 45 46 45 41
41 42 42 43 43 43 43 42 42 44 44 44 45 46 47 47 47 47 47 47 48 48 48 48 47 48 49 49 47 45 44 44 43 42 43 45 45 46 46 46 45 42
38 39 40 41 42 42 42 42 43 44 44 44 45 45 45 46 45 45 45 46 45 43 43 45 44 43 46 49 49 48 47 45 43 43 43 44 46 47 43 39 39 40
36 37 37 38 40 41 41 42 42 43 42 43 43 43 43 43 43 43 44 44 43 40 40 43 40 35 39 47 49 48 49 46 43 43 43 43 43 43 36 30 31 34

ECMWFNIL_850_spd_063.txt.gz
Wind_Speed
33 36 35 34 35 33 32 32 30 29 29 27 26 26 27 27 25 23 22 21 21 20 20 20 18 17 16 15 16 15 14 13 11 9 10 11 12 13 14 14 14 14
35 38 37 35 36 35 34 34 33 32 31 30 27 25 25 27 27 25 24 23 23 21 20 21 20 19 19 18 18 17 16 15 13 11 11 12 13 13 14 14 14 15
39 39 38 38 37 37 36 35 34 33 32 31 30 28 25 25 26 28 27 26 26 23 21 21 21 20 20 20 19 19 18 17 16 14 13 13 13 14 15 15 15 16
41 40 40 39 38 37 37 35 35 35 34 32 32 31 29 26 25 27 29 28 27 26 24 22 21 20 20 20 20 20 20 19 18 16 16 15 14 14 15 16 16 16
43 42 41 40 40 39 38 37 37 36 35 34 32 32 32 30 28 27 29 29 28 28 27 25 23 22 21 21 21 21 21 21 20 19 19 17 16 15 16 17 18 18
44 43 43 42 41 41 40 40 39 37 36 35 33 32 32 32 32 31 30 29 29 29 28 26 25 24 22 22 22 23 23 22 22 22 20 18 18 18 17 18 19 19
46 45 44 43 43 42 42 41 40 39 37 35 33 33 32 31 32 33 33 32 30 30 29 28 28 27 25 24 24 24 24 24 24 25 23 21 21 20 19 19 20 20
47 46 45 44 44 43 43 42 41 40 38 36 34 33 33 32 32 33 34 34 33 31 30 30 30 29 28 26 25 25 26 25 25 26 26 25 25 22 20 19 20 21
48 47 46 45 44 44 43 42 41 40 39 38 36 34 34 34 34 34 34 35 35 33 33 32 31 31 30 28 27 28 27 27 26 27 27 28 27 25 22 21 20 20
49 48 47 46 45 45 44 42 40 39 39 40 39 35 33 34 35 34 34 36 36 35 35 34 33 33 32 30 28 28 29 29 28 28 29 29 28 27 25 24 23 22
49 49 49 48 47 45 44 42 39 36 36 39 41 39 34 32 35 36 35 36 37 36 36 36 36 35 35 33 30 28 29 30 30 30 30 30 29 29 28 27 27 26
49 50 49 48 48 46 43 41 38 35 34 35 39 41 37 33 34 37 37 37 37 37 37 37 37 37 37 36 34 31 30 31 31 31 31 32 31 30 30 30 29 29
48 49 49 48 48 46 44 41 39 37 35 33 34 38 39 35 33 36 38 38 38 38 38 38 38 38 39 38 37 36 34 33 33 32 33 33 33 32 32 31 32 31
47 46 46 46 46 46 45 43 41 38 36 35 33 34 38 37 34 34 36 39 39 38 38 38 39 40 41 40 40 39 38 36 35 35 34 35 35 35 34 33 33 33
45 44 44 45 46 46 46 45 44 41 39 37 35 35 36 36 35 34 34 37 40 39 39 39 40 41 42 43 42 41 40 39 38 38 37 36 37 37 36 35 34 32
46 44 43 44 45 46 46 45 45 45 43 40 39 38 36 36 36 35 34 35 38 40 40 40 41 43 44 44 44 43 42 42 41 41 40 39 39 39 39 38 36 34
48 46 45 44 45 46 46 45 45 46 45 43 41 41 39 38 38 37 36 34 35 39 41 41 42 44 44 44 44 44 44 43 43 44 43 43 42 42 41 41 39 37
49 48 47 46 46 46 47 46 45 46 46 45 45 45 43 41 40 41 41 38 36 37 41 43 42 42 44 44 44 44 44 44 44 44 45 45 44 44 44 43 42 40
47 48 48 47 47 47 47 46 46 46 47 48 48 47 46 45 44 45 45 44 41 38 39 43 44 44 43 43 43 43 42 42 43 44 45 46 46 45 45 44 44 43
46 46 46 46 46 46 46 46 46 46 47 48 47 47 47 48 48 47 47 47 46 43 41 41 43 45 45 44 43 43 42 42 42 43 45 46 46 46 45 45 46 45
45 45 44 44 44 44 44 44 45 45 46 46 46 46 47 48 48 48 48 47 47 47 45 43 43 45 46 47 46 44 44 43 43 44 45 46 46 46 46 46 46 46
45 44 43 43 42 41 41 41 42 44 44 44 43 43 44 45 46 47 47 47 47 47 47 47 46 45 46 48 47 45 44 44 45 45 46 47 47 48 47 47 48 48
43 42 42 42 41 40 40 39 40 41 42 42 42 42 40 39 40 42 43 44 45 46 47 48 46 45 47 48 48 46 45 45 46 46 47 48 49 49 50 50 50 49
40 40 41 40 40 39 38 38 38 39 40 40 41 41 38 35 33 35 37 40 42 43 44 45 45 46 47 47 48 47 46 45 46 47 48 49 49 50 51 52 52 50
37 38 39 39 39 38 38 37 37 37 37 38 38 39 38 36 33 33 34 36 38 40 40 41 42 43 44 45 46 46 46 45 45 47 49 50 51 51 52 53 52 48
36 36 37 36 36 36 35 35 35 35 35 35 35 35 34 34 33 32 32 32 32 33 34 37 40 41 42 43 44 44 44 44 45 47 49 50 52 52 52 54 51 44

ECMWFNIL_850_spd_069.txt.gz
Wind_Speed
38 36 37 37 36 36 35 33 31 31 29 29 28 27 25 23 20 19 18 18 18 19 20 19 19 18 18 17 16 16 15 14 12 11 9 8 8 11 14 14 12 11
39 38 37 36 36 36 35 33 31 30 30 30 28 27 25 24 22 20 19 18 18 19 20 21 20 19 19 18 18 18 17 15 14 13 12 11 10 10 12 15 15 14
41 39 39 38 36 35 35 33 31 30 30 30 30 29 27 26 24 22 21 20 19 19 20 21 21 21 20 19 19 19 19 17 16 15 14 13 12 11 11 14 16 16
42 40 39 38 37 36 35 34 33 32 32 32 31 30 29 28 27 25 23 22 21 20 20 20 21 22 22 21 20 20 20 18 17 16 16 15 14 14 13 13 15 17
41 40 39 38 37 37 36 36 35 34 33 33 32 31 30 29 28 26 25 24 24 23 21 20 21 22 23 23 22 22 21 20 19 19 19 18 17 17 16 15 15 16
42 41 40 39 38 38 37 37 37 35 34 33 31 31 30 29 27 26 26 26 26 25 24 23 22 22 23 24 24 24 23 22 22 21 21 21 20 19 19 19 18 17
44 42 41 40 39 38 38 38 37 37 35 33 31 30 30 29 28 26 25 25 26 26 26 25 24 23 22 23 24 24 24 24 24 24 24 23 23 22 22 22 21 20
45 43 42 41 40 39 38 38 37 37 35 34 33 31 31 30 30 29 27 26 26 26 26 26 26 25 24 24 24 25 25 24 25 26 26 25 25 25 25 24 23 22
46 45 44 43 42 40 39 38 38 37 36 36 34 33 32 31 31 31 30 29 28 28 27 27 27 26 27 26 25 26 26 26 26 26 27 27 27 27 27 27 26 25
49 47 46 45 44 42 41 39 38 38 37 37 36 35 33 33 32 32 32 31 31 31 30 30 29 28 28 28 27 27 27 27 27 27 28 28 28 28 28 28 28 27
50 49 48 48 47 45 43 41 40 39 38 37 37 36 35 34 33 32 33 33 33 33 32 32 32 31 30 29 29 28 27 27 27 28 28 29 28 28 28 28 29 29
52 51 50 49 48 47 44 43 41 40 39 38 38 37 37 36 35 34 34 34 34 34 34 33 34 33 32 31 30 30 29 29 29 29 29 30 30 29 29 29 29 30
53 52 51 50 49 48 46 44 43 42 40 39 38 38 38 37 37 36 35 35 34 34 35 34 34 34 34 33 32 32 32 31 32 31 31 31 31 31 31 31 31 31
54 52 52 51 49 48 47 45 44 43 42 41 39 39 39 39 38 37 37 36 36 35 35 35 35 35 35 35 34 34 34 34 33 34 34 33 33 32 32 32 32 32
53 52 52 51 49 48 48 47 46 44 43 42 41 40 40 40 40 39 38 38 37 37 36 36 37 37 36 36 36 36 36 36 36 35 35 35 35 34 34 34 34 35
52 52 52 51 50 49 48 47 46 45 44 43 42 42 41 40 40 40 40 40 39 39 38 38 39 39 38 37 36 36 37 38 38 38 37 37 37 37 36 36 36 37
50 51 51 51 51 49 48 47 45 45 44 43 43 42 42 41 40 40 41 41 40 40 40 40 40 40 39 38 37 37 38 39 40 40 39 39 40 39 39 38 38 38
48 49 50 51 51 50 49 47 45 45 44 44 44 43 42 41 41 40 40 40 40 40 39 40 40 40 40 39 38 38 38 39 40 41 41 41 41 41 41 40 40 40
47 47 47 49 49 49 49 47 46 46 45 45 44 43 42 42 42 41 39 39 39 39 39 39 38 38 38 38 38 38 38 38 39 40 42 42 42 41 42 42 42 42
46 46 46 46 46 46 48 48 47 46 45 45 44 44 43 43 42 42 41 40 40 40 40 39 38 37 37 37 37 37 37 37 38 38 40 42 42 42 42 42 42 43
46 46 45 44 44 45 46 47 47 46 45 45 44 44 44 44 43 43 42 42 41 41 41 41 40 38 37 37 37 36 36 36 37 38 39 41 42 43 43 43 43 44
47 46 45 44 43 44 45 46 46 46 44 44 44 44 44 44 44 44 44 43 43 42 43 43 43 42 40 39 38 37 36 36 36 37 39 40 41 42 43 44 44 45
47 46 45 44 44 44 44 45 45 45 44 44 44 45 45 45 45 45 44 44 44 44 44 45 44 43 43 42 41 39 37 37 37 38 38 40 41 41 42 43 44 46
48 46 45 44 44 44 44 44 44 44 44 44 44 45 45 45 45 45 45 45 45 45 45 45 45 44 43 43 42 40 37 36 37 38 39 41 41 41 42 43 44 46
45 46 46 45 44 44 43 43 43 43 43 44 44 45 45 45 45 45 45 46 46 46 46 46 45 44 43 43 42 39 37 36 35 37 40 41 41 41 43 44 45 46
42 45 45 45 44 43 42 42 42 41 42 42 43 44 44 44 44 44 44 44 44 45 45 45 45 44 42 41 39 38 37 36 36 37 40 40 39 40 42 43 45 46

ECMWFNIL_850_spd_072.txt.gz
Wind_Speed
41 41 40 39 38 38 36 34 33 32 32 31 29 28 27 25 22 21 20 21 22 23 22 21 20 19 19 18 17 16 15 14 12 10 10 10 9 10 11 12 12 12
41 40 40 38 39 39 38 35 33 32 31 30 29 27 26 25 24 21 20 20 22 23 22 22 21 20 20 19 19 18 17 17 15 13 13 12 11 10 10 12 12 12
41 41 40 39 39 40 40 37 35 33 31 30 29 28 26 26 25 23 21 20 21 21 22 23 22 21 21 20 20 19 19 18 17 15 15 14 13 11 10 11 13 14
42 42 41 40 39 39 40 39 37 35 33 32 31 30 28 26 25 24 23 22 21 20 20 22 23 23 22 22 22 21 20 19 18 17 17 16 15 14 12 12 13 14
43 42 42 41 39 39 39 40 39 36 34 33 32 32 30 28 26 25 25 23 22 21 21 21 22 23 23 23 23 22 21 20 19 18 18 18 17 16 15 14 14 13
44 43 43 42 40 39 39 39 38 37 35 34 34 33 32 30 28 27 26 25 24 23 23 23 23 23 24 24 25 24 23 22 21 20 20 19 18 18 17 17 16 15
44 43 43 43 42 40 40 39 38 37 36 35 35 34 33 32 30 29 27 26 25 25 25 25 25 24 24 25 25 26 25 24 23 22 22 21 20 20 20 19 19 18
43 43 43 43 42 42 41 40 39 38 37 36 36 35 34 33 32 31 29 28 27 27 27 27 27 26 25 25 25 26 26 26 25 25 24 24 23 23 23 22 22 21
44 43 43 43 43 43 42 41 41 39 38 37 36 35 35 35 34 33 31 30 29 28 28 28 28 28 27 27 26 26 27 27 27 27 26 25 25 25 25 24 24 23
46 45 44 44 44 44 43 42 42 40 39 38 36 36 36 36 35 34 33 33 32 31 29 29 29 29 28 28 28 28 28 27 27 27 28 27 26 26 25 26 26 25
46 46 46 46 45 45 44 43 43 42 41 40 38 37 36 36 36 35 35 35 34 33 32 31 30 29 29 29 28 28 28 28 28 28 28 28 28 27 27 27 27 27
46 45 45 45 45 45 44 43 43 43 42 42 40 39 37 37 36 36 36 35 35 34 34 33 32 31 30 30 29 28 28 28 29 29 29 29 29 29 29 28 28 28
45 44 43 44 44 44 44 44 43 43 43 42 41 41 40 38 37 37 36 36 35 34 34 34 34 33 32 32 31 30 30 29 29 30 30 30 30 30 30 30 30 29
45 43 42 42 43 44 44 44 44 44 43 42 41 42 42 40 39 37 37 36 36 35 35 35 35 35 34 34 33 32 32 32 31 31 31 31 31 31 31 32 32 31
45 43 42 42 43 44 45 45 45 44 43 43 42 42 42 41 40 39 38 38 37 37 36 36 37 37 36 35 35 34 34 34 33 33 33 33 32 33 33 33 34 33
45 44 43 43 43 44 45 46 46 45 45 44 43 43 42 42 41 41 41 40 39 38 38 38 39 38 37 36 36 35 35 35 35 35 35 35 35 35 34 34 35 35
45 45 44 44 44 44 45 46 46 46 46 46 45 44 43 42 42 43 42 42 41 40 40 40 40 39 38 37 37 36 37 37 36 36 37 37 37 37 37 36 36 36
44 44 45 45 45 45 45 46 46 47 47 47 47 46 44 43 43 43 43 42 42 42 41 41 41 39 38 38 38 38 38 38 38 38 38 39 39 39 39 38 38 38
43 43 44 45 45 46 46 46 47 48 48 48 48 47 45 45 44 44 44 43 43 43 42 42 41 40 39 39 39 38 38 39 40 40 40 40 40 40 40 39 39 39
41 41 41 42 42 44 45 46 47 48 48 48 47 47 47 46 46 45 45 45 44 43 43 43 42 40 40 39 39 38 37 38 39 40 40 40 40 40 40 40 40 40
41 40 39 39 39 41 43 45 46 47 48 48 47 47 48 47 46 46 46 46 45 44 43 43 42 40 39 38 37 36 35 36 37 39 40 41 40 40 40 40 40 40
41 40 39 38 37 39 41 42 44 45 46 47 47 47 47 47 47 47 46 46 46 45 44 43 41 39 39 37 36 35 34 35 36 37 38 39 40 39 39 39 39 40
41 40 39 38 38 39 40 40 41 42 43 45 46 47 47 47 47 47 46 46 46 46 45 44 40 38 38 37 35 34 34 34 35 36 37 38 38 38 38 39 39 40
41 41 40 39 39 39 39 38 39 40 41 42 44 46 46 47 46 46 46 46 46 46 46 45 42 40 39 38 36 35 35 35 35 35 37 38 38 38 38 39 40 40
41 41 40 40 39 38 38 37 37 38 38 40 41 43 44 45 46 47 47 46 46 46 46 46 44 43 42 41 39 37 36 36 35 36 38 39 38 38 39 40 40 41
42 41 41 40 40 38 37 36 36 36 37 39 40 41 42 43 45 46 47 47 46 46 46 46 45 43 42 41 40 39 38 37 37 38 39 39 38 39 40 40 40 41

ECMWFNIL_850_spd_075.txt.gz
Wind_Speed
39 38 37 36 36 36 35 34 34 34 34 33 31 28 26 25 23 22 22 22 22 21 20 20 20 19 19 18 17 16 15 14 13 12 11 11 10 10 10 11 14 16
40 39 38 36 36 36 36 35 34 34 34 34 32 29 27 25 25 24 23 22 22 22 21 21 21 21 20 19 19 18 17 16 14 13 12 12 11 11 10 10 12 14
41 41 40 38 37 36 36 35 34 34 34 34 33 31 29 27 26 25 24 23 23 23 22 23 23 22 21 20 20 19 19 17 16 14 13 13 12 12 11 10 11 12
42 41 40 39 38 37 36 35 35 34 34 35 34 32 30 28 26 25 24 24 23 23 22 23 24 23 22 22 21 21 20 19 18 16 16 15 14 13 13 12 12 12
42 42 41 40 38 37 36 36 36 35 35 35 34 33 31 29 27 26 25 25 24 23 23 23 24 24 24 23 23 23 22 21 20 19 18 17 16 15 15 15 15 14
43 42 42 41 39 38 37 36 35 34 34 35 35 34 32 30 29 27 26 25 25 23 23 24 24 25 25 24 24 24 23 22 21 20 20 19 18 17 17 17 18 17
44 43 42 42 41 40 38 36 35 35 34 34 35 35 33 31 30 28 27 27 26 25 24 24 24 24 25 25 25 24 24 23 23 22 22 21 20 19 19 19 20 19
43 42 42 42 42 41 40 38 37 35 33 33 35 35 35 33 31 30 29 29 28 27 26 25 25 24 24 25 25 25 25 24 24 23 23 22 22 21 21 21 21 21
42 42 41 42 42 42 41 39 37 35 34 34 34 35 36 35 33 31 31 31 31 29 28 27 26 26 26 26 27 27 26 25 25 24 24 24 24 23 22 22 23 23
43 42 42 42 42 42 41 39 38 36 35 35 35 35 36 35 34 33 33 33 33 32 30 29 28 27 27 28 28 28 28 27 27 26 26 25 25 25 24 24 24 25
44 43 42 42 42 41 41 40 38 37 36 36 35 35 35 35 35 35 35 35 35 34 32 31 29 29 29 29 29 29 29 28 28 28 28 27 27 26 26 26 26 26
44 43 43 42 42 41 41 40 39 38 37 36 36 36 35 35 35 35 36 37 36 35 34 33 32 31 30 30 30 30 30 30 30 30 30 29 29 28 27 27 27 27
44 43 42 42 41 41 40 40 40 39 37 36 36 36 36 36 36 36 37 37 37 36 35 35 34 33 33 32 31 30 30 30 30 30 30 31 30 30 29 29 28 28
44 42 41 40 40 39 39 39 39 39 38 36 36 36 37 37 37 36 37 37 38 37 36 36 36 36 35 34 33 32 31 31 30 30 30 30 30 30 30 30 30 29
44 43 42 41 40 39 39 39 39 39 38 36 36 36 36 36 36 37 37 37 38 38 38 37 37 37 36 35 35 34 34 33 32 32 31 31 31 31 31 31 31 31
46 45 43 42 40 39 38 39 39 39 38 38 37 36 36 36 36 36 37 38 38 38 38 38 39 38 37 36 35 35 35 35 34 33 33 32 32 32 32 32 32 32
46 45 44 43 41 40 39 40 39 39 39 39 38 37 36 36 36 37 37 37 38 38 38 39 39 38 37 36 36 35 35 35 35 34 34 34 33 34 34 33 33 33
45 44 44 43 41 40 39 39 39 40 40 40 39 39 37 37 37 37 38 38 38 39 39 39 39 38 37 36 36 35 35 35 36 35 36 35 35 35 35 34 35 35
45 44 44 43 42 41 39 39 40 41 41 40 40 39 39 39 38 38 38 38 39 40 40 39 39 37 37 36 36 35 35 36 36 37 37 37 36 36 35 35 35 36
44 44 43 42 41 40 40 40 40 40 41 41 40 40 40 40 39 39 39 39 39 40 40 40 39 38 37 37 37 36 36 36 36 37 38 38 38 37 37 36 36 36
43 42 42 41 40 40 40 39 39 39 40 40 40 40 39 39 39 39 39 39 39 39 40 41 40 39 38 38 37 37 37 37 37 37 38 38 38 38 38 37 36 37
41 41 40 39 39 39 39 38 37 37 38 38 39 39 39 38 39 39 39 39 39 39 40 41 39 39 39 39 38 38 38 38 38 37 38 38 38 37 37 37 36 37
40 39 38 38 38 38 38 36 34 34 35 35 37 38 38 38 38 38 38 39 39 39 39 39 38 38 39 39 39 39 39 38 38 38 37 37 37 36 35 36 35 36
38 38 37 37 37 37 35 33 32 32 32 32 33 34 34 34 34 35 36 38 38 38 38 38 38 38 38 38 38 38 38 38 37 37 37 37 36 35 34 35 35 35
38 37 37 37 36 35 33 31 30 30 29 29 30 31 31 30 31 33 34 35 36 37 37 38 38 37 37 37 37 37 37 36 36 37 38 37 36 35 34 34 34 34
38 38 37 36 36 34 32 30 29 29 29 30 30 30 30 30 31 32 32 32 33 35 36 36 36 36 36 35 35 35 35 35 35 36 36 35 34 34 34 34 34 33

ECMWFNIL_850_spd_081.txt.gz
Wind_Speed
34 34 34 33 33 32 31 30 29 29 28 26 24 23 22 20 19 19 17 16 15 14 14 13 12 11 11 11 11 11 10 9 9 9 9 9 8 8 8 7 7 7
33 33 33 33 33 32 32 30 29 29 28 27 25 24 22 20 20 20 19 17 16 15 14 14 13 13 12 12 12 12 12 11 10 10 10 9 9 9 8 7 8 8
32 32 32 33 33 32 32 31 30 29 28 27 26 25 23 21 21 21 20 18 17 16 15 15 15 14 14 13 13 13 13 12 11 11 11 10 10 9 9 8 9 9
32 31 30 30 31 31 32 32 31 29 28 28 27 26 24 23 22 21 20 20 19 18 17 17 16 15 16 15 15 15 14 13 12 12 12 12 11 11 10 10 10 10
33 32 30 29 29 30 30 31 30 29 29 28 27 26 25 24 23 22 22 21 20 20 19 19 18 17 17 17 17 17 16 15 14 14 14 14 13 12 11 11 11 11
35 33 31 29 28 28 28 28 28 28 27 27 26 26 25 24 24 23 22 22 21 21 21 21 20 19 19 18 19 19 18 18 17 16 16 15 14 14 13 13 13 12
36 34 32 31 30 28 27 27 26 26 26 25 25 24 24 24 24 24 23 22 22 22 22 22 22 21 21 20 20 20 20 19 18 17 17 17 16 15 15 14 14 14
35 35 33 33 32 30 28 27 26 26 26 25 24 23 22 23 23 23 24 23 23 23 23 23 23 23 22 22 22 22 21 21 20 19 18 18 17 17 16 16 15 15
35 35 34 33 33 32 30 28 27 26 26 26 25 24 23 23 23 23 23 24 24 24 24 24 24 24 24 24 23 23 23 22 21 20 19 19 18 18 17 17 17 16
36 35 34 34 34 33 32 30 28 27 26 25 24 24 24 24 23 23 24 25 26 26 26 26 26 25 25 25 24 24 24 23 23 22 21 20 19 18 18 17 17 17
37 36 35 34 34 34 32 31 30 29 27 25 25 25 24 24 24 23 24 26 27 28 28 28 27 26 26 25 25 25 25 24 24 23 22 21 20 19 19 18 18 18
39 37 36 34 34 33 33 31 31 30 28 26 26 25 25 25 24 24 24 26 27 28 28 29 28 27 27 26 26 26 26 26 25 25 24 23 21 21 20 20 19 19
40 38 35 34 34 33 33 31 31 31 29 27 26 26 26 25 25 25 25 26 27 27 28 29 29 29 29 28 27 27 27 27 27 26 26 25 24 23 22 22 22 21
40 37 35 34 34 33 32 31 31 30 29 28 27 27 26 26 25 25 26 26 27 28 28 29 30 31 30 30 29 28 28 28 28 28 28 27 26 25 25 25 24 23
40 37 36 35 34 33 32 31 31 30 29 28 28 27 26 25 25 26 26 27 27 28 28 29 30 32 32 32 31 30 29 29 29 30 29 29 28 27 27 26 26 25
40 38 37 37 35 34 33 32 31 30 30 29 28 27 26 26 26 26 27 27 27 28 29 29 31 32 33 33 31 30 30 30 30 30 30 30 29 29 28 28 27 27
40 40 39 38 37 35 34 33 32 31 31 30 29 28 28 27 27 27 27 27 28 29 29 30 31 32 32 32 31 30 30 30 30 30 30 31 30 30 30 29 28 28
41 41 40 39 37 36 34 32 32 32 32 31 30 29 29 29 28 28 28 28 29 30 30 31 32 32 31 30 30 30 29 29 29 30 30 31 31 31 30 29 29 28
41 40 39 38 37 35 33 32 33 33 33 32 31 31 31 30 29 29 29 29 29 30 31 32 33 32 31 30 30 29 29 28 29 29 30 30 30 30 30 29 29 28
40 39 39 37 35 35 34 33 34 34 33 33 32 32 32 31 30 30 30 30 30 31 32 32 32 32 31 30 29 29 28 28 28 29 29 30 30 29 29 29 28 28
40 39 38 36 35 35 35 35 35 34 34 33 33 33 32 31 31 31 31 30 30 31 31 32 32 32 30 29 29 28 28 28 28 28 28 29 29 29 29 28 28 28
40 38 37 36 35 35 35 35 35 34 33 33 33 33 32 31 31 31 31 30 30 30 31 32 33 32 30 29 28 28 27 27 28 28 28 29 29 29 29 28 28 28
39 38 37 36 36 36 36 36 35 34 33 33 33 33 33 32 31 31 31 31 30 31 32 33 33 32 31 30 29 28 28 28 29 29 29 29 29 29 29 28 28 28
38 37 36 36 36 36 35 35 34 34 33 33 33 33 33 33 31 31 31 31 31 32 32 32 32 32 31 30 29 29 29 29 30 29 29 29 29 28 28 28 28 28
37 36 36 35 35 35 34 34 33 33 33 33 33 33 33 33 32 32 32 32 32 32 31 31 31 31 31 30 29 29 29 29 30 29 29 30 29 28 28 28 28 27
35 35 35 35 35 33 32 32 31 31 32 33 33 33 33 33 33 32 32 31 31 31 31 31 31 31 31 31 30 29 29 29 29 29 30 29 28 27 27 27 26 25

ECMWFNIL_850_spd_084.txt.gz
Wind_Speed
33 34 33 32 31 30 30 29 27 26 26 25 23 22 22 21 19 17 17 15 14 14 13 12 11 10 10 9 9 9 9 7 6 5 4 3 3 3 4 4 4 4
33 33 33 32 32 31 31 29 28 26 26 25 24 22 22 21 19 18 18 16 15 14 14 13 12 11 11 10 10 9 10 9 7 7 6 5 4 4 4 5 5 5
33 33 33 32 32 32 31 30 28 27 25 25 24 24 23 21 19 18 18 18 17 15 15 14 13 12 12 12 11 10 10 10 9 9 8 7 6 6 5 6 6 6
34 34 33 32 31 31 31 30 29 27 26 25 25 25 24 23 20 19 19 19 19 17 16 16 15 13 13 12 12 11 11 11 10 11 10 9 8 8 7 7 7 7
35 35 33 32 31 31 31 30 30 28 26 26 25 25 25 24 22 21 20 20 20 20 19 17 16 15 14 14 13 13 12 12 12 13 12 11 10 9 9 9 9 8
36 35 34 32 31 31 31 30 29 28 27 26 26 25 24 24 23 22 22 21 21 22 21 20 19 18 17 16 15 15 14 14 14 15 14 13 12 11 11 11 10 9
38 36 34 33 31 31 30 29 29 28 28 27 26 26 25 24 24 23 23 23 22 22 22 22 21 20 18 18 17 16 16 16 16 16 16 15 15 14 13 12 12 11
39 37 35 34 31 30 30 29 28 27 27 27 27 27 25 25 25 24 24 24 23 23 23 23 23 21 20 20 19 18 18 18 18 18 18 17 16 16 15 14 13 12
40 39 37 34 32 31 30 28 27 26 26 27 27 26 25 25 25 25 25 25 24 24 24 24 24 23 22 22 22 22 21 20 20 19 19 18 18 17 16 15 15 14
41 40 38 36 34 33 32 29 28 26 26 26 26 25 25 25 25 25 26 26 25 25 25 25 25 24 24 24 24 24 23 22 22 21 20 19 19 18 17 16 16 16
42 41 40 38 37 35 34 31 29 28 27 26 26 26 25 25 26 26 26 27 26 26 26 26 25 25 25 25 25 25 25 24 23 23 23 21 20 19 18 17 17 17
43 42 41 40 38 36 35 33 31 29 28 27 27 27 27 27 27 27 27 27 27 26 26 27 26 26 26 26 26 26 26 25 24 24 24 23 22 21 20 19 18 18
44 43 42 40 39 37 35 33 32 31 29 29 28 27 27 28 28 29 28 28 28 27 27 28 28 28 28 28 27 27 27 27 26 25 25 24 23 22 21 20 20 19
44 43 42 40 39 38 37 35 33 32 31 30 29 28 28 28 28 29 29 29 29 29 29 29 29 30 30 30 29 29 29 29 28 26 25 25 25 24 23 22 22 21
44 43 42 40 39 39 38 37 35 34 33 33 31 30 29 28 28 28 29 30 30 30 30 30 31 31 31 31 31 31 30 30 30 28 27 27 27 26 25 24 24 23
43 43 42 41 40 40 39 38 37 36 35 34 33 31 30 30 29 29 28 29 30 30 30 31 31 32 33 32 32 32 31 31 31 30 29 29 28 28 27 26 26 24
43 42 42 41 41 41 40 38 37 37 36 35 33 32 31 31 31 30 29 29 30 31 31 31 32 33 33 32 32 32 31 31 32 31 31 30 30 30 29 28 27 26
42 42 42 42 42 42 40 38 38 37 37 36 34 33 32 32 32 32 31 30 30 30 31 32 33 33 33 32 31 31 31 31 31 32 32 32 31 31 31 30 29 28
42 42 42 43 42 42 40 39 38 38 38 36 35 33 33 33 33 33 33 32 32 31 31 31 32 33 33 31 30 30 30 30 31 32 32 33 32 32 32 31 31 30
42 42 43 43 43 42 41 40 39 38 38 36 35 34 34 34 34 34 34 34 33 33 33 32 32 33 33 31 30 29 28 29 30 31 32 33 33 32 32 32 31 31
42 43 43 43 43 42 41 41 40 39 38 36 36 35 35 35 35 34 34 34 33 33 34 33 34 34 33 31 29 28 28 28 29 30 31 32 33 33 32 32 31 31
43 43 43 43 43 42 42 42 41 40 39 37 37 36 35 35 35 34 34 34 33 33 34 34 34 34 34 32 30 28 28 28 29 30 31 32 33 33 32 32 32 31
43 43 43 42 42 42 42 42 41 40 39 38 38 37 36 35 34 34 34 34 34 34 34 34 34 34 34 32 30 29 28 29 30 31 32 33 33 33 32 32 32 32
42 42 41 42 42 42 42 41 41 40 39 38 38 37 36 35 34 33 33 34 34 34 34 34 34 34 34 33 31 30 29 29 31 32 32 33 33 33 33 32 33 32
41 40 40 40 41 42 41 41 40 40 39 37 36 36 35 35 34 33 34 34 34 33 33 33 32 33 34 33 32 31 30 30 31 32 32 33 33 33 33 33 33 32
39 39 39 39 40 40 40 40 39 38 38 37 36 36 36 35 35 34 34 34 33 32 32 32 32 32 34 34 32 31 31 30 31 32 33 33 33 33 33 33 33 33

ECMWFNIL_850_spd_087.txt.gz
Wind_Speed
36 35 34 33 32 30 27 26 25 25 24 22 20 19 18 18 17 16 14 13 12 12 12 12 11 10 9 8 8 8 8 7 7 6 5 5 4 4 4 5 5 5
36 35 34 33 33 32 30 27 25 25 25 24 20 17 17 17 18 18 16 15 14 13 13 13 12 12 11 10 9 8 8 9 8 7 6 6 5 4 4 4 4 4
36 35 35 35 34 34 32 28 27 25 24 24 22 19 17 18 19 19 18 17 15 14 14 14 13 13 12 11 10 9 9 9 9 8 8 7 6 5 5 5 5 4
37 36 36 35 33 33 32 29 28 27 24 22 22 21 19 18 19 19 19 18 17 16 15 15 15 14 14 13 12 11 10 9 10 10 10 9 8 7 6 7 7 6
38 36 35 34 32 32 32 31 29 28 26 22 21 21 21 20 21 20 20 20 19 18 17 16 16 16 15 15 13 13 12 10 10 11 11 11 10 9 8 8 8 8
38 37 35 33 33 32 32 32 30 28 27 24 22 21 21 23 23 21 20 22 21 20 19 17 17 17 16 16 15 15 14 12 11 11 11 11 11 10 9 10 10 9
39 38 36 34 33 33 33 32 31 30 28 26 23 23 22 23 24 23 22 22 22 21 21 19 19 19 18 18 17 16 16 14 13 13 12 12 12 12 11 11 12 11
40 39 37 35 33 33 33 32 31 31 30 28 25 24 24 24 24 24 23 23 22 22 22 21 21 21 20 19 18 18 17 15 15 15 15 13 13 13 13 13 13 12
41 40 38 37 35 34 33 32 31 31 31 30 27 25 25 25 24 24 25 25 24 23 24 23 23 23 22 21 20 20 18 17 16 16 17 16 15 15 15 14 15 14
43 41 39 38 36 35 34 32 30 30 31 31 29 26 25 27 26 25 26 27 27 26 26 26 25 25 25 24 22 21 20 19 18 17 17 17 17 16 15 15 15 15
45 43 41 40 37 34 33 32 30 29 30 31 30 27 25 27 28 28 27 29 29 28 28 28 27 27 27 26 25 23 23 22 20 20 20 19 19 17 16 16 16 16
46 44 43 41 39 35 32 32 31 29 29 30 30 29 27 26 29 30 30 31 30 30 29 29 29 28 28 27 26 25 24 24 23 22 21 22 21 20 18 18 18 17
46 46 44 41 39 37 33 31 32 30 29 28 29 29 28 27 27 30 32 32 31 30 30 30 29 29 29 28 27 26 25 25 24 23 22 22 22 21 20 19 19 19
46 46 44 40 39 38 34 32 32 31 30 29 28 29 29 28 27 28 31 32 32 31 31 30 30 30 29 29 28 27 26 26 26 24 22 22 22 22 21 20 19 19
46 45 45 42 39 38 36 34 32 32 31 30 29 29 30 29 28 27 28 31 31 31 31 30 30 31 31 30 30 29 27 27 27 26 24 22 21 21 20 20 19 19
45 45 45 44 41 39 39 36 33 32 32 31 31 30 30 30 30 28 27 29 31 32 32 31 31 32 32 31 30 30 29 28 28 28 27 25 24 23 22 20 19 19
45 46 45 45 43 41 41 39 35 32 32 33 32 31 31 31 31 30 29 28 29 31 32 33 33 33 33 32 31 30 29 28 29 29 29 29 28 27 26 24 21 20
45 46 46 46 45 44 44 43 38 34 33 33 33 32 32 32 31 32 31 29 28 28 29 32 34 35 35 34 33 30 29 29 28 28 29 30 29 29 28 27 25 22
44 46 47 47 47 46 46 44 42 38 35 34 33 33 33 33 32 32 33 32 29 28 28 29 31 34 35 35 33 31 29 28 28 28 28 28 29 29 28 28 28 27
42 43 46 47 46 47 47 45 44 42 38 34 33 33 34 36 34 33 33 34 32 30 28 28 28 30 33 35 34 31 29 27 27 27 27 26 26 27 27 28 29 29
41 38 42 46 46 46 47 46 45 45 42 36 33 33 35 38 37 34 34 36 35 33 30 28 28 28 30 32 32 31 29 27 27 27 27 26 26 27 28 29 30 30
43 38 40 45 46 45 47 47 45 45 44 41 35 31 32 36 38 36 35 36 37 36 32 29 28 29 31 32 32 31 28 27 27 29 29 29 29 30 31 31 31 31
45 42 42 44 45 45 46 46 45 44 44 43 39 33 30 33 36 37 36 36 36 37 36 33 29 30 32 34 34 33 29 27 28 30 31 32 32 31 32 32 32 31
45 45 45 45 44 45 46 46 46 44 44 44 43 38 32 29 32 34 35 35 36 36 37 37 33 32 34 35 35 34 31 29 29 31 32 32 33 33 33 33 32 32
43 44 45 44 44 45 45 45 46 45 44 43 43 41 36 30 29 30 31 33 34 33 34 36 35 33 34 34 34 34 32 30 30 31 32 33 33 34 34 34 33 33
41 43 44 43 43 43 44 44 44 43 43 43 42 41 38 33 29 27 28 29 30 30 30 33 34 34 34 33 33 33 32 31 30 31 32 33 34 34 34 34 34 34

ECMWFNIL_850_spd_093.txt.gz
Wind_Speed
37 36 36 34 32 29 28 26 26 26 26 24 21 18 17 15 15 14 13 13 14 13 13 14 14 15 15 14 12 11 11 12 11 11 11 12 14 16 16 15 12 10
39 38 37 36 34 32 30 28 26 25 25 24 21 18 17 16 16 16 14 14 15 15 14 14 14 15 16 15 13 12 12 13 13 12 10 9 11 15 16 13 13 14
40 40 39 38 36 35 32 30 29 27 25 23 21 19 18 17 16 17 16 15 16 16 16 15 15 15 15 14 14 14 12 12 13 12 11 8 8 11 13 11 11 15
41 41 41 40 38 37 35 33 31 29 28 25 23 21 19 18 18 18 18 17 17 17 17 16 17 16 16 15 15 15 13 12 12 12 12 11 9 9 11 11 10 13
41 41 41 41 40 39 38 36 34 32 30 28 25 23 21 20 20 20 21 20 19 19 18 17 17 18 17 17 16 16 15 14 14 13 13 13 12 10 11 12 11 12
43 42 41 41 41 40 40 39 37 35 32 30 27 25 23 22 22 21 22 22 21 20 19 18 18 18 18 18 17 17 17 16 16 15 14 14 14 13 12 12 12 12
46 44 42 42 41 41 41 40 39 37 34 32 29 27 25 24 24 24 23 23 23 23 21 20 19 19 19 19 19 18 18 17 17 17 16 15 14 15 14 13 13 13
48 46 45 43 42 42 41 41 40 38 36 34 32 29 28 26 26 26 25 23 24 24 23 22 21 20 20 20 20 19 19 19 18 18 18 17 16 16 16 15 15 14
49 48 47 46 45 44 43 42 41 39 37 36 34 32 29 28 28 28 27 25 24 25 25 24 23 22 21 21 21 21 21 20 20 19 19 19 19 18 17 17 16 16
49 49 48 48 47 46 45 43 42 40 39 37 35 34 31 30 29 29 29 27 26 26 26 26 25 24 23 23 22 21 21 21 21 20 20 20 19 19 18 18 18 17
50 50 49 49 48 47 45 44 42 41 40 38 37 35 33 31 31 31 31 30 28 27 27 27 26 25 25 24 23 22 22 22 21 21 21 20 19 19 19 19 19 18
50 50 50 49 48 47 45 44 43 41 40 39 38 36 35 33 32 32 33 31 29 28 28 28 28 26 25 25 24 23 22 22 22 22 22 21 20 19 19 19 19 19
50 50 50 50 49 47 45 44 43 42 41 40 39 38 37 36 34 34 33 32 30 29 29 29 29 28 27 26 25 24 23 23 23 23 23 23 22 20 19 19 19 19
48 49 49 49 48 47 45 44 43 42 41 40 39 39 39 38 36 35 34 32 31 30 29 30 30 30 30 28 27 26 24 24 24 24 24 24 23 22 20 20 19 19
45 47 48 48 48 47 46 45 44 42 42 40 40 40 41 40 38 36 35 33 32 31 30 30 31 32 31 30 29 28 27 26 25 25 25 25 25 23 22 21 20 19
43 45 47 47 48 47 46 45 44 43 42 41 40 40 41 42 40 38 37 35 33 33 32 32 32 33 32 31 30 29 28 27 26 26 26 26 26 26 25 24 22 21
42 43 45 47 47 47 47 46 44 43 42 42 41 39 40 41 41 40 39 37 34 33 33 33 33 33 33 32 31 30 29 29 28 27 26 27 27 27 26 26 25 24
42 42 43 46 47 47 47 46 45 44 43 43 42 40 39 40 42 42 40 38 36 35 34 34 33 32 32 32 32 31 30 30 29 28 28 28 27 27 26 26 25 25
42 42 43 44 46 47 47 46 46 45 44 44 43 41 40 39 41 42 41 39 37 36 35 34 33 31 31 31 31 31 30 31 30 30 29 29 28 28 27 26 26 25
43 43 43 44 44 46 47 47 47 47 46 45 44 43 42 40 40 41 41 40 39 37 36 35 33 31 30 31 31 30 30 30 31 31 31 30 30 29 28 27 26 26
45 44 43 44 44 45 47 47 48 47 47 46 45 44 44 43 41 41 42 42 40 39 37 36 35 32 30 30 30 30 30 30 31 31 31 31 31 30 30 29 27 27
45 45 44 44 45 46 47 48 48 48 48 47 46 45 45 44 43 42 42 43 42 41 39 38 37 34 31 30 29 28 29 30 31 31 31 31 31 31 31 30 29 29
46 46 46 45 45 47 48 49 49 49 49 48 47 46 45 45 45 44 42 43 43 43 42 40 39 36 33 31 29 28 28 29 29 30 30 31 31 31 31 31 31 30
47 46 46 46 47 48 49 49 49 49 49 49 49 48 46 46 46 45 44 43 43 44 44 42 40 38 36 33 30 28 28 28 28 28 29 29 30 31 32 32 32 31
48 48 47 47 48 48 49 49 49 49 49 50 50 49 47 46 45 45 45 44 43 43 44 43 41 38 36 34 32 30 29 29 28 28 28 28 28 29 30 31 33 33
47 49 49 48 48 48 48 48 49 48 49 50 51 50 48 46 45 45 46 45 44 43 43 44 43 41 38 36 33 31 30 30 30 30 30 29 29 29 29 29 31 32

ECMWFNIL_850_spd_096.txt.gz
Wind_Speed
38 37 36 34 33 32 30 29 28 26 24 23 22 20 18 16 14 14 14 15 14 13 13 14 13 14 15 14 13 12 12 13 13 15 18 20 20 16 13 14 15 15
40 39 38 36 34 33 31 29 28 26 25 23 22 20 18 16 15 15 15 15 15 14 14 15 14 14 15 15 14 13 13 14 15 14 16 20 20 18 16 16 17 16
41 41 40 39 37 35 33 31 29 28 26 24 23 21 19 18 17 16 16 15 16 15 15 15 15 15 15 15 15 15 14 15 15 15 15 17 18 19 19 19 18 17
42 42 42 41 39 36 34 33 32 30 28 26 24 23 21 19 19 19 18 17 17 17 17 16 16 16 16 15 15 15 15 15 15 16 15 15 15 16 20 22 20 19
44 43 42 42 41 38 36 36 35 33 31 29 26 25 23 22 21 20 21 20 19 19 19 18 17 18 17 17 16 16 16 16 16 17 17 16 14 13 17 21 21 20
44 45 44 43 42 41 39 38 37 36 34 32 29 27 25 23 22 22 22 21 21 21 21 20 19 19 19 19 19 18 18 18 18 18 18 18 16 14 15 18 20 20
44 45 46 45 44 42 41 40 38 37 36 34 32 30 27 25 24 23 23 22 22 23 23 22 21 21 21 21 21 20 20 19 19 19 18 18 17 16 15 17 19 20
44 45 46 47 46 45 43 41 40 38 37 36 34 33 30 28 26 24 24 24 23 24 24 24 24 23 22 22 22 22 22 21 21 21 20 19 19 19 18 17 18 19
43 45 46 47 47 47 46 44 42 40 39 38 37 35 33 31 29 27 26 25 25 25 25 26 26 26 25 24 24 23 23 23 22 22 22 21 20 20 19 19 18 19
43 44 46 47 48 48 47 46 45 43 42 40 39 37 36 34 32 30 28 27 27 27 26 27 29 29 27 26 25 25 24 24 24 24 23 23 22 21 21 20 20 20
43 43 46 48 48 48 48 47 46 46 44 43 41 40 38 36 35 33 31 30 29 29 28 28 29 31 30 29 27 26 25 25 25 25 25 24 23 23 22 22 22 22
43 43 45 46 48 48 48 47 47 47 46 45 44 42 40 38 37 35 33 32 31 30 29 28 29 31 32 31 30 28 27 26 26 26 25 25 24 24 23 23 23 23
45 44 43 44 46 47 48 48 48 47 47 46 45 44 42 40 39 37 36 34 33 32 31 29 29 30 32 33 32 31 29 28 27 27 26 26 25 24 24 24 24 23
45 44 43 42 43 45 47 48 49 48 48 47 46 45 44 42 41 39 37 36 35 35 33 31 31 31 32 33 34 33 32 31 29 28 28 27 26 25 24 24 24 24
45 44 44 43 43 44 46 48 49 49 48 48 47 47 46 44 42 41 39 38 37 37 36 34 34 33 33 34 34 34 33 32 31 30 29 29 27 26 25 25 24 24
44 45 45 44 44 45 46 47 48 49 49 48 48 48 46 45 44 42 41 40 39 39 38 38 37 35 34 34 35 34 33 32 31 31 31 30 29 28 27 25 24 24
43 43 44 44 45 45 46 47 48 48 49 49 49 48 47 46 44 43 42 41 40 40 40 40 39 37 35 35 35 35 34 33 32 31 31 31 30 30 29 27 26 25
42 42 43 43 44 44 46 47 48 48 49 49 49 48 48 46 45 44 43 42 41 41 41 41 40 39 37 35 35 35 34 34 33 32 32 31 31 31 30 29 28 27
40 40 41 41 41 42 43 45 47 49 49 50 49 49 48 48 46 45 44 43 42 42 42 42 41 40 38 37 36 35 34 34 34 33 33 32 32 31 31 30 30 29
40 40 40 39 39 39 40 43 47 49 49 50 49 49 49 49 48 46 45 45 44 43 43 42 41 40 39 38 37 36 35 35 35 35 34 33 33 32 31 31 30 30
41 41 40 39 38 39 39 41 44 48 49 49 49 50 50 50 49 48 47 46 45 45 44 44 42 39 38 38 37 37 36 36 36 36 36 35 34 33 33 32 31 30
43 42 41 40 39 39 40 41 42 45 48 49 49 49 50 50 49 49 48 47 46 46 46 45 43 40 38 37 36 36 36 37 38 38 38 38 36 35 34 32 31 31
43 45 43 41 41 41 42 42 41 42 45 48 49 50 50 50 50 50 49 48 47 47 47 46 44 41 39 38 36 34 35 36 37 38 38 38 37 35 34 33 32 32
41 46 47 44 43 44 44 43 42 42 43 45 49 50 50 50 50 49 49 49 48 47 47 46 44 42 40 39 37 35 35 34 34 35 36 37 36 35 34 34 33 32
41 45 49 47 45 45 45 44 43 42 42 43 47 49 50 49 48 49 49 49 49 48 47 46 45 43 41 40 38 37 36 35 34 34 34 34 34 34 34 34 33 33
44 46 49 48 46 45 45 45 44 43 43 43 45 47 49 48 48 48 49 49 49 49 48 47 46 44 43 41 40 39 38 36 35 35 35 33 32 32 32 32 32 32

ECMWFNIL_850_spd_102.txt.gz
Wind_Speed
28 29 29 29 27 26 25 25 23 22 23 22 20 18 17 15 14 15 15 13 13 13 12 12 11 10 11 11 10 9 9 9 10 11 13 14 13 10 9 8 7 7
27 27 29 29 28 27 26 26 25 24 23 23 22 19 17 15 15 15 15 15 14 13 12 12 11 11 11 12 11 10 10 10 9 10 11 13 13 12 10 9 9 9
28 27 27 28 28 28 27 26 26 25 24 23 22 21 19 16 14 15 15 15 15 14 13 12 12 12 12 12 13 12 11 10 10 10 10 11 11 11 11 11 11 10
29 28 27 27 27 27 27 27 27 27 25 24 22 21 20 17 16 15 14 14 14 14 14 13 12 12 12 13 14 14 13 11 10 9 9 10 10 10 10 10 11 10
30 29 28 27 27 27 28 28 27 27 26 25 22 22 21 19 18 17 16 15 14 14 14 14 13 13 13 13 14 14 14 13 11 10 10 10 9 9 8 10 11 11
31 30 29 28 27 28 29 29 29 28 27 25 23 22 22 21 20 20 18 17 16 14 13 13 13 13 13 13 14 14 14 14 13 12 11 10 9 9 9 9 11 12
33 32 30 29 28 28 29 30 30 30 29 27 25 24 22 21 21 21 20 18 18 16 15 14 13 13 13 13 14 14 14 14 13 13 12 11 10 10 10 9 10 12
33 32 31 30 29 29 30 30 31 31 30 29 28 26 24 23 22 21 20 19 18 18 16 15 14 14 14 15 15 15 14 14 13 13 13 12 12 12 11 10 10 10
35 34 33 32 31 30 30 30 31 32 32 31 30 28 26 25 23 22 21 21 19 18 17 16 16 15 15 16 16 16 15 15 14 13 13 13 14 13 12 12 12 12
38 36 35 34 33 32 31 30 30 31 33 33 32 30 28 27 25 24 23 22 21 20 19 18 17 17 17 17 17 17 17 16 15 15 14 14 15 14 14 14 14 14
40 38 37 36 35 33 32 30 30 31 32 34 34 33 31 29 28 27 26 25 24 22 21 20 19 19 18 18 18 18 18 18 17 17 16 16 16 15 16 16 16 15
42 40 39 37 36 34 33 31 31 31 32 33 35 35 34 32 31 30 29 28 26 25 24 23 22 21 20 19 19 19 19 20 19 19 18 17 17 17 17 16 17 17
43 42 40 38 36 34 33 32 31 31 31 33 34 35 36 35 34 33 32 30 29 28 27 25 25 24 23 22 21 21 20 21 21 21 20 20 19 18 18 18 17 17
43 42 40 38 36 35 33 32 32 31 31 31 33 35 36 37 36 35 34 33 32 31 30 29 28 27 26 25 24 23 22 22 22 22 22 22 21 20 20 19 19 19
43 42 41 40 38 37 35 34 32 31 31 30 31 33 35 37 37 37 36 35 34 33 32 31 31 30 28 27 26 25 24 24 23 23 23 23 23 22 22 21 21 20
43 43 42 41 40 38 37 35 34 32 31 31 31 32 33 35 36 38 38 38 37 36 35 35 34 33 31 29 28 27 26 26 25 24 23 24 24 25 24 23 22 22
43 42 42 41 40 39 38 36 35 34 33 32 32 32 32 32 34 36 38 38 38 37 37 37 36 35 33 31 30 28 28 27 27 26 25 25 25 26 26 25 24 24
42 42 42 41 40 39 38 36 35 35 35 34 34 33 32 32 32 34 35 37 37 38 38 37 37 35 34 32 31 30 29 28 28 27 27 26 26 26 27 27 26 26
41 41 41 41 40 39 37 37 36 36 36 35 35 34 33 33 33 32 33 34 36 37 38 38 37 36 34 33 32 31 30 30 29 29 28 28 27 27 27 28 28 27
39 40 39 38 38 37 37 37 37 37 36 35 34 34 35 35 34 34 33 33 34 35 37 38 38 37 36 35 34 32 31 31 30 30 29 29 28 28 28 28 29 29
38 38 37 36 35 35 36 36 36 36 35 34 34 34 34 34 34 34 34 33 33 33 35 37 38 38 37 36 35 33 32 31 30 30 30 29 29 29 29 29 29 29
37 36 36 35 35 35 36 35 35 34 32 32 32 33 33 33 33 33 33 33 33 33 34 36 38 38 38 37 36 34 32 31 31 30 30 30 30 30 30 29 29 29
38 38 37 35 35 37 37 35 34 33 31 31 32 32 32 32 32 31 31 32 32 33 34 35 37 38 37 36 35 34 32 32 31 31 31 31 31 30 30 30 29 29
37 38 38 37 37 37 37 36 35 34 33 32 32 32 32 31 31 31 31 31 32 32 33 33 34 35 36 36 35 33 33 32 32 32 32 31 31 31 31 31 31 30
33 33 34 36 37 37 36 36 35 34 33 33 34 34 33 32 32 33 33 32 31 31 31 31 31 32 34 35 35 34 33 33 32 32 32 32 32 31 31 31 31 31
30 30 30 31 33 34 33 32 31 32 32 34 35 35 34 34 34 35 34 33 32 32 31 30 30 30 31 33 34 34 34 34 33 34 33 33 32 32 32 32 32 32

ECMWFNIL_850_spd_105.txt.gz
Wind_Speed
27 25 24 22 20 19 18 18 18 18 17 17 17 16 14 11 11 11 11 10 9 8 9 9 8 8 8 8 9 9 9 9 8 9 11 12 12 11 9 8 6 5
26 25 25 23 21 19 19 19 19 18 18 17 17 17 15 12 11 11 11 11 10 9 9 10 10 10 9 9 9 9 9 9 8 8 9 10 11 11 10 9 8 7
26 25 25 24 22 20 19 19 19 19 19 18 18 18 17 15 12 12 12 11 11 10 10 10 11 10 10 10 10 10 10 9 8 8 8 9 10 10 10 11 10 10
27 26 25 24 23 22 20 20 19 19 20 20 19 19 19 18 15 13 13 12 12 11 11 11 11 11 10 10 11 11 11 10 9 9 8 8 8 9 9 10 11 11
27 26 26 25 23 22 21 21 21 20 20 20 20 20 20 20 18 16 14 14 13 12 11 12 12 11 11 11 11 11 11 11 11 10 10 8 7 7 8 9 10 11
27 27 26 26 24 23 22 22 22 21 21 20 20 21 21 21 20 19 17 16 14 13 12 12 12 12 12 11 11 11 11 11 11 11 11 9 8 7 8 8 8 9
28 27 26 26 25 24 24 23 23 23 22 21 21 20 21 21 21 21 20 18 17 16 14 13 13 12 12 12 12 11 11 11 11 12 12 11 10 9 8 8 8 8
30 29 28 27 26 26 26 24 24 24 23 23 22 21 21 21 21 21 21 20 20 18 17 15 14 13 13 13 12 11 11 11 11 12 12 12 12 10 9 9 9 8
31 31 29 28 28 28 27 26 25 24 24 24 23 23 22 21 21 21 21 21 21 21 19 17 16 15 14 13 13 12 12 12 12 12 12 13 13 12 11 10 10 9
33 32 31 31 30 29 28 28 27 26 25 25 24 24 24 23 22 22 22 22 22 22 21 19 18 16 15 14 13 13 13 12 12 12 13 13 13 13 13 12 12 11
34 33 33 32 31 30 29 28 28 28 26 25 25 25 25 25 24 23 23 24 24 24 22 21 20 18 17 15 14 13 13 13 13 14 14 14 14 14 14 14 14 13
35 34 34 33 32 31 30 29 29 29 28 27 26 26 26 26 26 26 25 25 25 25 24 23 22 20 19 17 16 15 14 14 13 14 14 15 15 15 15 15 15 15
35 34 34 33 32 31 30 30 29 29 29 28 28 27 27 27 28 28 28 27 27 27 26 25 24 23 22 20 19 18 17 16 15 15 14 15 16 16 16 16 16 16
35 34 34 33 33 32 31 30 30 30 29 29 29 29 28 28 28 29 29 29 29 29 28 28 27 26 25 23 22 21 20 19 19 17 16 15 15 16 17 18 17 17
36 35 35 34 34 33 32 31 31 31 30 29 29 28 29 29 29 29 30 31 31 31 31 30 30 29 28 26 25 24 23 22 22 20 19 18 17 17 17 18 19 19
37 37 36 36 35 33 32 32 32 31 31 30 29 29 29 29 29 29 30 31 32 33 33 34 34 33 31 29 28 26 25 25 24 23 22 21 20 19 18 18 19 20
36 37 37 37 35 34 33 33 32 32 31 30 29 29 29 28 27 28 29 30 32 34 35 36 36 35 33 31 30 29 28 27 27 26 25 24 23 22 21 20 20 21
36 37 38 37 36 35 34 34 33 33 32 31 30 29 29 28 28 27 28 28 30 33 35 37 38 37 35 34 32 31 30 29 29 28 28 27 26 24 23 22 21 21
36 36 37 37 36 36 35 34 34 34 33 31 31 30 30 29 28 28 28 28 28 31 34 36 38 38 36 36 35 34 32 32 32 31 30 29 28 27 25 24 23 23
35 35 37 37 36 36 35 35 34 34 33 32 32 32 31 30 29 29 29 29 29 30 31 34 36 38 37 36 35 35 34 33 33 33 32 31 30 29 28 26 25 25
34 34 35 35 36 36 35 35 34 33 33 33 33 32 31 29 29 30 30 30 29 30 30 32 35 37 37 37 36 36 35 35 34 34 33 33 32 31 30 29 28 27
32 35 35 35 35 36 36 35 34 33 32 32 32 33 32 30 29 30 31 30 30 31 31 32 34 34 35 36 37 36 35 35 35 35 35 35 34 33 32 31 30 30
26 31 36 37 36 36 36 35 34 33 31 31 32 32 33 32 30 30 30 30 30 31 32 33 34 34 33 34 34 34 34 34 36 36 36 36 35 34 33 32 32 31
26 26 30 36 38 37 36 35 34 33 31 31 31 31 31 31 30 29 30 30 30 31 32 32 32 32 32 33 33 32 32 33 34 35 36 36 36 35 34 33 33 33
29 26 25 31 36 38 37 36 34 32 31 30 29 29 30 30 30 31 31 30 31 31 31 31 31 31 30 30 30 30 31 32 33 34 36 37 36 36 35 34 34 34
29 29 26 27 33 36 36 36 34 32 30 30 29 28 28 28 29 31 32 32 31 31 31 32 31 31 30 28 27 28 29 30 32 34 36 37 37 36 36 36 35 35

ECMWFNIL_850_spd_108.txt.gz
Wind_Speed
21 21 21 19 18 17 16 17 16 16 14 12 11 10 11 11 10 10 9 8 8 7 7 7 6 6 5 5 6 6 7 8 8 8 9 9 10 9 8 7 6 5
20 21 22 21 20 18 17 17 16 16 16 14 12 11 11 11 11 10 10 9 9 8 7 8 7 7 6 6 6 6 7 7 8 8 9 9 10 10 10 8 7 7
19 20 22 23 22 20 18 17 17 17 16 15 15 13 12 12 12 11 11 10 9 9 8 8 8 8 8 8 7 6 7 7 8 8 8 9 9 10 10 9 9 8
20 19 21 22 23 22 20 19 18 18 17 17 16 15 14 14 14 12 12 11 11 10 10 9 9 9 9 9 8 8 8 8 8 9 8 8 9 9 10 10 10 10
21 19 20 21 23 23 22 21 20 18 18 18 17 17 17 16 15 14 13 13 12 12 11 11 10 10 10 10 9 9 9 9 9 9 9 8 8 8 9 10 11 11
22 21 20 20 22 23 23 22 21 19 19 18 18 18 18 18 17 17 16 14 13 13 12 12 11 11 11 11 10 10 10 10 10 10 9 9 9 8 9 10 10 10
24 22 21 20 21 23 23 22 22 21 20 20 19 19 19 19 18 18 18 17 15 14 13 13 13 13 13 12 12 11 11 10 11 11 10 9 10 9 9 10 10 10
25 24 23 22 21 22 22 23 23 23 22 21 21 20 19 19 19 19 20 19 18 17 16 16 15 14 14 14 13 12 12 11 11 11 10 11 11 10 10 10 10 10
26 26 25 24 23 23 23 23 23 24 24 23 22 21 20 20 20 20 20 21 20 20 19 18 17 16 15 15 15 14 13 12 12 12 11 11 12 12 11 11 11 11
27 27 26 26 25 25 24 24 24 23 24 24 23 22 22 22 21 21 21 21 21 22 22 21 20 19 17 17 17 15 14 13 13 13 13 12 13 13 13 13 12 12
28 28 28 27 27 27 26 24 24 23 24 25 24 24 23 23 23 22 22 22 22 23 23 23 23 22 20 19 18 17 16 15 14 14 14 13 14 14 14 14 14 14
28 29 29 28 28 28 27 26 25 24 24 25 25 25 25 24 24 24 24 23 23 23 24 24 25 25 23 21 20 19 18 16 15 15 14 14 14 14 15 15 15 15
26 27 29 29 29 28 27 27 26 26 25 25 25 26 26 25 25 26 26 25 24 24 24 25 25 26 26 24 22 21 20 18 17 16 16 15 15 15 15 16 16 16
23 25 26 28 29 29 29 29 28 27 27 27 27 26 26 26 26 25 26 27 26 26 26 26 27 28 28 27 25 24 22 21 20 18 17 17 16 15 15 16 17 17
23 23 25 26 28 29 29 30 30 30 29 29 29 28 27 27 27 26 26 27 28 28 28 28 29 30 30 30 29 27 26 24 23 21 20 19 19 18 17 17 17 18
27 26 25 26 27 28 28 29 30 31 31 31 31 30 29 28 28 28 28 28 29 31 31 31 31 32 33 32 31 30 29 27 26 25 23 22 22 21 20 19 18 18
28 29 28 27 27 27 28 28 29 30 32 33 33 32 31 31 30 31 31 30 30 31 32 33 34 35 35 34 33 32 31 30 29 28 26 26 25 25 24 22 20 19
25 27 28 29 29 28 28 28 29 30 31 32 33 33 33 33 32 32 33 32 32 32 33 34 36 37 37 36 35 34 34 33 32 30 30 29 28 28 27 25 24 22
25 25 24 25 28 29 29 29 30 30 30 31 32 32 33 34 34 33 33 34 34 34 34 35 36 37 38 38 37 36 35 35 34 33 32 31 30 30 29 29 28 26
24 25 24 23 24 27 29 31 31 30 29 29 30 32 33 33 33 34 34 34 34 36 36 36 36 37 38 38 38 38 37 36 36 35 35 34 34 33 32 32 31 30
19 21 22 24 26 27 28 29 30 30 29 29 29 30 32 33 32 32 34 34 34 35 36 37 37 37 38 37 37 37 37 37 37 37 37 38 37 37 36 35 34 33
18 18 19 22 25 26 26 26 27 29 30 30 30 29 29 31 32 32 32 34 35 35 36 37 37 37 37 36 36 35 34 36 37 38 39 39 40 40 39 38 37 36
21 21 21 21 22 23 24 24 24 25 27 30 32 32 30 30 31 32 32 33 34 35 36 37 37 37 36 35 34 33 32 33 35 37 39 40 41 41 40 40 40 39
22 23 24 24 22 22 23 24 24 24 25 27 30 31 31 30 30 30 32 32 33 34 36 36 36 36 37 36 34 33 33 33 34 36 38 40 41 41 41 41 42 41
19 23 26 27 26 22 22 25 27 26 26 26 28 29 30 29 29 29 30 30 32 33 33 35 35 34 36 36 35 33 33 33 33 35 36 38 40 41 41 42 43 43
14 18 22 27 30 28 24 24 27 29 27 27 27 27 28 28 27 28 29 29 29 30 31 33 34 33 34 35 34 34 33 33 34 35 36 38 39 40 41 43 43 44

ECMWFNIL_850_spd_111.txt.gz
Wind_Speed
20 19 19 18 16 15 15 14 14 13 12 12 11 11 11 10 11 11 10 8 8 7 7 6 6 6 7 8 8 9 9 9 9 9 10 10 10 8 7 7 6 5
21 21 20 19 18 17 16 15 15 14 14 13 12 12 12 12 11 11 11 10 9 8 8 7 7 7 7 7 8 9 9 9 8 8 9 10 10 9 9 8 7 7
20 21 21 20 19 19 17 16 15 15 14 14 14 13 12 13 13 12 12 11 10 10 9 8 8 7 7 7 8 8 9 9 9 8 9 10 10 9 9 9 8 8
20 20 22 21 19 18 18 17 16 16 15 15 15 14 13 13 13 13 13 12 11 11 11 10 9 8 8 7 7 8 9 9 9 10 10 9 10 10 9 9 9 9
21 20 21 22 21 20 19 18 18 17 16 16 15 15 15 15 15 15 14 13 13 12 12 11 11 10 9 8 8 8 9 9 9 10 10 9 9 9 9 9 10 10
22 21 21 21 22 22 21 20 19 18 17 17 17 16 16 17 16 16 15 15 13 13 12 12 12 11 11 10 9 9 9 9 9 10 11 10 10 9 9 9 10 11
22 21 21 21 22 24 23 21 20 20 19 18 18 18 17 17 17 17 17 16 15 14 14 13 13 13 13 12 11 10 10 10 10 11 11 11 11 11 11 11 11 12
23 22 21 21 21 23 24 23 22 22 22 20 19 19 19 18 18 18 18 17 16 16 16 15 15 15 15 14 13 12 11 11 12 13 12 12 13 12 12 12 13 13
24 23 22 22 21 22 23 23 23 23 23 23 21 20 20 21 19 18 19 19 18 18 18 18 18 17 16 16 15 14 13 13 13 13 13 12 13 13 13 13 13 13
26 24 23 23 22 22 22 23 23 22 23 25 24 21 20 21 21 20 20 21 21 20 20 20 20 19 18 18 17 17 16 15 15 14 14 14 14 14 14 14 14 13
26 25 24 24 23 23 23 23 23 23 22 24 24 23 22 21 22 23 22 22 23 22 21 21 21 21 20 19 18 18 17 17 16 16 16 15 15 15 15 15 15 15
24 25 25 25 24 24 23 23 23 23 23 23 23 24 23 22 22 23 24 25 25 24 23 23 22 22 22 22 20 19 19 18 17 17 16 16 16 16 16 16 16 16
22 24 25 25 25 25 24 24 24 24 23 23 23 24 24 24 23 23 25 27 27 26 25 24 24 24 24 24 23 21 20 19 18 17 17 17 17 17 16 17 17 17
21 22 22 23 24 25 25 25 24 24 25 24 23 24 25 25 25 24 25 26 27 28 27 25 26 26 26 26 26 24 22 20 20 19 19 18 18 18 17 17 18 18
19 20 20 21 22 24 25 26 26 25 25 25 25 25 25 25 25 25 25 25 26 28 29 28 27 27 28 28 28 28 26 23 22 22 21 20 19 19 18 18 18 18
17 18 19 20 21 22 24 26 26 26 26 26 27 26 26 25 26 26 26 26 26 27 29 29 29 28 29 30 30 30 29 27 25 23 23 22 21 20 20 19 19 19
16 18 20 20 21 22 23 24 25 26 26 27 28 28 28 28 27 27 27 27 27 27 28 29 30 30 31 32 32 31 31 30 28 26 25 25 24 23 22 21 20 20
17 17 19 22 22 22 23 24 24 24 26 27 28 29 29 30 29 29 29 28 28 28 28 29 30 31 33 35 35 33 32 32 31 28 26 26 26 25 25 23 22 21
20 20 19 20 21 21 21 22 23 24 25 26 27 28 28 30 32 31 31 31 30 30 29 29 29 31 33 36 37 36 34 33 32 30 28 27 27 27 26 26 26 24
18 21 22 20 19 19 20 21 22 23 24 24 25 26 27 29 31 32 32 33 34 33 32 30 30 30 32 34 36 37 36 35 34 32 30 28 29 28 28 27 28 27
17 16 18 20 20 19 20 21 21 22 23 23 23 23 25 27 29 30 31 33 35 36 35 34 32 31 32 33 34 36 36 36 36 36 34 32 30 30 30 30 29 28
20 18 17 18 19 20 20 21 21 22 22 22 22 23 23 25 26 28 29 30 32 34 35 35 34 33 34 35 35 35 35 35 35 37 37 37 35 33 34 33 33 33
20 22 22 21 18 17 18 19 21 22 21 20 22 24 24 24 24 24 24 26 28 30 31 33 33 33 34 36 38 38 37 37 37 36 38 39 40 39 36 35 36 38
14 18 22 23 22 19 16 16 18 21 22 21 21 21 23 25 27 26 24 23 24 26 28 30 30 30 31 34 37 38 38 39 39 38 38 39 40 42 41 39 38 39
10 12 14 17 19 18 17 18 21 20 19 20 21 21 23 25 27 28 28 26 25 25 26 27 27 26 27 30 34 36 37 37 37 38 39 39 40 42 43 43 43 42
11 13 12 14 16 16 16 19 24 24 19 17 18 21 24 26 26 27 28 29 29 27 26 26 27 26 24 26 28 32 34 35 36 37 39 40 41 41 42 44 45 46

ECMWFNIL_850_spd_114.txt.gz
Wind_Speed
18 19 19 18 17 16 14 14 15 14 13 12 12 12 12 11 10 10 9 10 9 8 8 8 8 9 10 10 10 10 9 9 10 9 10 9 9 9 7 6 7 8
19 19 19 19 19 18 16 15 15 15 14 14 13 13 14 13 13 12 11 10 10 9 9 9 9 9 10 10 9 9 10 10 9 9 9 10 10 10 8 7 7 7
21 20 20 20 19 19 18 17 16 15 14 15 15 15 15 15 15 15 14 12 10 10 10 9 9 9 9 10 9 10 10 9 9 9 9 10 10 10 10 9 8 7
22 22 21 21 20 19 18 17 17 16 15 15 15 14 14 14 15 16 15 13 12 11 11 10 10 9 9 9 9 10 10 9 10 10 9 10 10 10 11 11 10 8
22 22 22 22 20 19 19 19 18 17 17 16 16 15 15 15 15 15 15 15 13 12 12 11 11 10 10 10 10 10 10 9 9 10 10 9 9 10 10 10 11 11
21 22 22 23 22 20 20 21 20 19 18 17 17 17 17 17 17 16 15 15 14 14 13 12 12 12 11 11 11 10 10 10 9 10 10 10 10 9 9 9 11 12
22 22 22 23 23 23 22 22 21 21 19 18 18 18 18 19 19 18 16 16 15 14 14 13 12 12 12 11 11 11 11 11 10 10 11 11 11 10 10 10 11 12
23 23 22 22 23 24 24 23 22 22 21 20 20 20 19 19 19 19 18 17 16 15 14 14 13 12 12 12 12 12 12 11 11 11 11 12 12 12 12 12 12 13
23 23 23 23 23 24 24 24 23 23 24 22 21 21 21 21 20 19 19 19 17 16 16 16 16 15 13 13 13 12 12 12 11 11 12 12 13 13 13 13 14 15
24 23 23 23 23 23 24 25 24 23 24 25 23 22 21 23 22 20 20 20 19 19 19 19 19 17 16 15 15 14 13 13 12 12 13 12 13 13 13 14 15 15
25 24 24 24 24 24 24 25 25 24 24 25 25 24 22 22 23 22 21 21 20 20 21 20 19 20 19 17 16 16 15 14 14 15 15 14 14 13 13 14 15 16
26 26 25 24 24 24 24 24 24 24 24 24 25 25 23 22 23 24 23 22 22 22 21 20 19 20 20 19 17 17 16 16 15 16 17 16 15 15 15 15 16 16
26 28 27 25 24 24 24 23 24 24 24 24 24 24 24 23 22 23 24 23 23 23 23 21 20 19 19 20 19 17 16 17 17 16 17 17 17 16 16 15 15 16
24 25 27 27 25 24 25 26 24 24 24 24 24 24 23 24 22 21 23 23 24 24 24 22 21 20 20 20 20 20 19 18 18 18 17 17 17 16 15 15 15 15
23 20 22 25 25 23 24 26 26 25 25 25 25 25 23 23 23 22 22 22 23 23 23 23 22 22 22 21 21 20 20 20 20 20 19 17 17 16 16 16 16 16
22 20 19 22 25 25 23 24 23 23 25 26 25 25 24 22 23 23 23 22 22 22 23 22 23 23 23 23 22 21 21 21 22 21 21 19 18 18 17 17 16 17
17 19 19 20 21 23 25 26 23 20 22 25 26 26 25 24 22 22 23 22 21 21 22 23 23 23 23 25 24 23 22 22 23 23 22 21 20 20 20 19 18 17
13 14 17 20 19 15 16 23 26 25 24 21 20 21 23 24 24 23 23 23 22 21 21 22 23 22 22 24 26 26 25 24 24 24 24 24 23 22 22 21 21 20
11 12 14 18 19 15 13 15 20 24 25 23 21 19 17 20 22 23 23 23 23 23 21 21 22 22 22 23 24 26 27 26 26 25 25 25 24 24 23 22 22 22
11 11 10 10 11 14 17 17 16 17 21 22 22 22 19 19 19 21 23 23 24 25 25 23 22 21 22 23 23 24 25 26 27 27 26 25 25 24 24 23 23 23
10 12 11 10 9 8 10 12 13 14 17 18 17 17 19 21 20 21 24 26 26 27 29 30 27 23 21 21 21 22 23 23 24 26 27 27 26 25 25 25 25 24
8 10 11 13 13 11 8 7 8 11 14 16 15 15 15 17 20 22 24 25 26 27 29 31 31 30 28 24 20 19 21 23 24 24 26 27 27 27 27 27 27 27
9 10 10 10 12 13 13 12 11 10 10 12 14 16 16 17 20 23 24 24 25 27 27 28 29 29 30 29 27 23 22 24 26 27 27 28 29 29 29 29 30 30
13 13 12 10 10 10 12 14 14 12 9 9 12 14 16 18 20 22 24 25 25 26 27 28 28 27 27 29 30 29 27 27 28 30 32 32 33 33 32 31 31 32
13 13 12 12 11 10 10 11 12 12 11 9 10 11 14 17 18 20 22 24 25 26 27 27 27 27 27 28 29 30 31 30 30 32 34 35 35 35 34 33 32 31
15 13 11 13 14 12 9 10 11 12 14 13 12 12 13 15 17 18 20 22 24 25 27 27 27 27 26 26 26 28 30 31 31 32 34 35 34 34 34 34 33 32

ECMWFNIL_850_spd_117.txt.gz
Wind_Speed
18 18 19 16 14 14 13 13 12 11 10 10 10 10 10 10 10 11 11 10 10 10 10 10 10 11 12 11 11 11 9 10 11 10 10 9 8 10 11 10 10 9
19 18 19 18 16 14 14 13 12 12 11 10 9 9 9 9 9 11 10 9 9 10 9 9 10 11 11 11 12 11 10 9 10 10 9 9 9 9 10 10 10 10
19 18 18 19 17 16 15 13 12 12 12 10 9 8 8 9 9 10 10 9 9 10 10 10 10 10 11 11 11 12 11 9 9 9 8 9 9 9 9 9 8 8
19 19 18 18 17 16 16 14 13 12 12 11 11 9 9 10 11 11 10 9 10 10 10 10 9 9 10 10 11 11 11 10 9 9 8 8 9 9 10 10 9 7
20 19 18 18 17 16 16 16 15 13 12 13 13 13 13 12 13 13 12 10 11 10 10 10 9 10 10 10 10 10 10 10 10 10 9 8 8 9 10 11 11 9
20 19 19 18 18 17 16 16 15 14 13 12 13 13 13 13 13 13 13 13 12 11 10 10 10 10 10 10 10 10 10 10 10 10 10 8 7 8 9 11 11 11
19 19 18 18 18 18 17 15 14 14 13 12 13 13 12 13 14 14 14 14 14 13 11 11 11 11 11 11 11 10 9 10 10 10 10 9 8 8 9 10 9 9
18 17 17 17 17 18 18 17 15 15 15 14 14 14 14 13 15 16 16 15 14 14 13 12 11 11 11 11 12 11 10 10 11 10 10 10 10 9 9 10 9 9
18 16 15 15 16 17 18 19 18 16 16 16 15 15 15 14 14 16 17 16 14 13 13 13 13 11 11 11 12 12 12 11 11 10 10 10 11 11 10 10 11 12
19 18 17 15 15 16 16 18 19 18 17 17 17 17 16 16 15 15 16 16 15 15 14 13 14 13 13 12 12 12 13 13 12 12 11 11 10 11 11 11 12 13
21 20 19 18 16 15 15 15 17 18 18 18 18 18 19 18 17 16 16 16 16 16 15 14 15 15 15 15 14 13 13 13 13 13 12 12 11 11 12 13 13 13
24 22 21 20 19 18 17 16 16 16 18 19 19 18 19 19 19 18 18 18 18 17 16 16 17 18 18 17 17 16 14 13 13 14 14 14 13 13 13 13 14 14
24 24 23 22 20 19 19 20 19 17 17 19 20 20 18 18 20 21 19 18 18 18 18 17 18 19 19 20 20 19 17 16 15 15 15 16 16 16 15 14 14 14
21 23 24 24 23 22 21 21 22 20 19 18 20 22 22 18 18 21 21 20 19 18 19 18 19 20 20 21 22 22 20 19 18 17 16 17 18 18 17 16 15 15
18 20 21 23 24 24 23 22 23 22 21 18 17 21 25 22 19 21 22 22 21 20 19 19 20 20 20 21 21 22 22 21 21 20 19 18 18 18 17 17 16 16
15 18 19 20 21 23 24 24 24 23 24 22 17 18 23 25 23 23 23 23 23 22 21 20 20 20 19 19 20 21 22 22 22 22 22 21 20 19 19 18 17 16
10 14 17 18 18 19 21 24 25 24 24 24 21 19 21 23 23 23 24 23 23 24 24 23 22 21 20 18 19 20 21 22 23 23 23 23 22 21 21 20 18 18
4 8 11 14 14 14 15 18 22 24 24 24 23 22 22 23 23 23 24 24 23 23 25 25 23 21 21 20 19 19 20 21 22 23 24 25 25 24 23 22 21 21
3 4 6 8 9 10 11 12 14 18 20 21 22 23 23 24 25 25 25 26 25 23 24 26 26 23 22 22 20 19 19 20 21 22 23 24 25 26 25 24 24 23
3 4 5 5 6 7 9 10 11 12 13 15 18 22 24 25 26 27 27 27 28 26 25 25 25 24 24 23 23 22 21 20 20 21 22 23 24 26 27 27 27 26
4 2 5 6 6 7 9 10 12 13 14 14 15 19 22 23 24 25 27 28 29 29 29 27 26 24 23 22 22 23 25 25 25 24 24 23 23 24 25 27 28 28
12 8 3 3 6 9 9 9 10 12 13 14 15 17 19 21 22 24 26 29 32 32 31 31 30 29 27 25 22 21 24 27 29 30 29 28 26 25 24 25 27 28
14 13 10 6 2 6 9 10 11 11 11 11 13 16 17 19 21 23 25 28 33 35 33 32 32 32 32 31 29 27 26 27 29 31 33 33 32 30 28 26 26 27
13 12 13 11 7 4 3 7 10 12 12 11 11 14 16 18 20 21 23 25 29 32 34 34 35 34 34 34 35 35 34 32 31 31 33 34 35 34 33 31 30 28
12 11 11 12 11 9 7 5 6 9 12 13 13 13 15 17 19 20 21 23 25 28 31 33 35 35 35 36 37 38 38 38 37 36 36 36 36 36 36 36 35 33
11 10 9 9 9 9 9 9 8 6 8 11 14 15 15 16 18 20 21 22 23 24 26 29 31 33 33 35 35 36 36 36 37 38 39 40 39 37 36 37 37 37

ECMWFNIL_850_spd_123.txt.gz
Wind_Speed
18 18 17 15 14 13 12 12 12 12 11 11 10 10 10 10 11 11 11 11 11 11 11 11 11 12 12 12 11 11 10 10 10 11 12 12 13 13 12 10 9 9
19 19 18 17 15 14 13 12 11 10 11 10 10 10 10 10 11 11 11 11 11 11 11 12 12 13 13 13 12 12 12 12 11 11 12 12 12 13 13 12 11 11
21 21 20 18 16 15 14 13 12 11 11 11 10 10 10 10 10 11 11 12 12 11 11 12 12 13 13 13 13 13 13 12 11 11 12 13 12 12 12 13 14 14
22 22 21 19 18 16 14 14 14 13 12 12 11 11 11 11 11 12 12 12 12 12 12 12 12 13 13 14 13 13 12 12 11 11 12 12 12 12 12 13 15 15
23 23 21 20 19 18 16 16 16 15 14 14 13 12 12 12 12 13 13 14 14 13 13 13 13 13 14 14 13 13 13 12 11 11 12 12 12 12 13 13 15 15
23 23 22 21 20 19 18 18 17 17 16 15 14 14 13 14 14 14 14 14 15 14 14 14 14 14 14 13 13 13 13 12 11 11 12 11 11 12 12 14 15 15
23 23 23 22 21 20 19 18 18 18 17 16 15 15 15 15 16 15 14 14 15 15 15 15 14 14 13 13 13 13 12 12 12 12 12 12 11 11 11 12 14 15
23 23 23 23 23 22 20 19 18 18 17 17 16 16 16 16 17 15 15 15 15 16 15 15 15 14 14 13 13 12 12 12 12 12 13 12 11 11 10 11 12 13
23 24 24 24 24 24 22 21 20 19 18 18 18 16 16 17 17 16 15 15 15 16 16 15 15 14 15 14 14 13 12 12 11 12 12 12 11 11 10 11 12 13
24 23 24 25 25 25 24 23 22 21 20 19 18 17 16 17 17 17 16 15 15 16 15 15 14 15 15 16 15 14 13 12 12 12 12 12 12 11 11 11 12 13
22 23 23 25 26 25 25 24 23 22 22 20 20 19 17 17 17 18 17 17 16 16 16 15 15 14 15 16 16 16 15 14 13 13 13 13 12 12 12 12 13 13
21 22 22 23 25 26 25 23 22 22 22 22 21 20 18 17 17 18 19 19 18 17 16 16 15 15 15 15 16 17 17 16 14 14 13 13 13 13 14 14 14 14
22 22 21 21 22 23 23 21 20 20 20 21 22 21 19 18 18 19 20 20 20 19 18 16 15 15 15 15 15 16 18 18 16 15 14 14 14 14 14 15 15 15
24 23 22 22 22 21 20 19 18 17 18 20 22 22 21 20 20 19 20 20 21 21 20 18 17 16 15 15 15 16 17 18 17 16 16 16 16 16 16 16 16 15
25 25 24 24 24 23 22 20 19 18 18 20 22 23 24 23 22 21 21 21 22 22 22 21 20 19 17 16 16 16 17 17 17 17 17 17 17 17 17 17 17 17
25 26 25 24 25 25 25 24 22 20 21 21 22 23 24 24 25 24 24 23 23 24 23 23 22 21 19 18 17 17 17 18 17 17 17 17 17 18 18 18 18 18
21 23 23 23 24 25 24 23 22 22 23 23 23 23 23 23 24 25 26 26 26 26 26 25 25 23 21 19 19 19 20 20 20 19 18 17 17 18 18 18 19 19
17 19 20 19 21 22 21 21 21 21 22 24 25 25 24 24 23 24 26 27 28 28 28 29 28 27 25 23 22 21 22 23 23 23 22 21 19 18 18 17 18 19
14 16 16 16 18 19 20 21 21 20 22 24 27 27 26 25 24 24 25 27 29 29 29 30 30 30 28 26 25 23 23 24 25 26 27 26 23 22 20 18 18 17
11 12 12 13 15 15 15 17 18 20 23 25 27 28 28 26 26 25 25 26 28 29 29 30 30 31 30 28 27 26 25 24 25 26 27 28 27 25 23 21 19 18
7 8 9 11 12 11 9 9 10 14 18 23 26 28 28 27 27 27 27 27 28 29 29 29 30 30 31 30 29 28 27 26 26 25 26 27 27 27 26 23 21 20
8 7 5 5 7 9 7 6 7 9 12 17 22 24 25 24 23 23 24 27 29 29 29 30 30 30 29 29 28 28 28 27 27 26 26 26 27 27 27 26 24 22
9 9 8 6 2 2 3 4 5 6 8 12 16 17 18 18 18 18 19 22 24 25 26 26 27 28 28 28 28 28 28 27 27 27 26 27 27 27 28 29 28 27
9 9 10 10 9 8 6 4 3 3 2 5 9 13 14 13 13 15 16 17 19 20 20 20 21 24 25 26 27 28 28 28 28 28 27 27 27 28 28 29 30 30
7 8 9 11 11 10 9 8 7 7 6 3 1 5 8 8 9 11 13 13 13 15 16 16 17 19 21 23 24 25 26 27 27 27 27 27 27 27 28 29 29 30
5 6 7 8 8 7 8 8 8 7 7 6 4 2 2 3 3 6 9 10 10 11 12 13 14 15 17 19 20 21 22 24 25 26 27 27 27 27 28 29 29 30

ECMWFNIL_850_spd_129.txt.gz
Wind_Speed
13 13 12 11 10 9 8 8 7 8 9 8 7 6 6 6 7 7 7 7 7 7 7 7 8 8 8 8 8 8 8 8 8 7 7 7 7 8 8 8 8 6
14 14 13 12 11 10 9 8 8 7 7 7 7 6 6 6 7 8 7 7 7 7 7 8 8 8 8 8 8 8 8 8 7 7 7 7 7 7 8 8 9 8
15 15 14 13 12 10 9 9 8 8 7 8 7 6 6 6 7 7 7 7 7 7 8 8 8 8 8 8 8 8 8 7 7 7 7 7 7 8 8 8 9 9
15 15 15 14 13 11 10 9 9 9 9 8 8 7 7 7 7 7 7 8 8 8 8 8 8 8 8 8 8 7 8 8 8 8 8 7 8 8 9 9 9 10
15 15 15 15 14 13 11 11 10 10 9 9 8 7 8 8 8 8 8 8 8 8 8 8 8 8 8 8 8 8 8 8 8 8 8 8 8 9 9 9 10 10
16 16 15 15 15 14 13 11 11 11 10 9 8 8 8 8 8 8 8 8 8 8 8 8 8 8 8 8 8 7 7 7 7 8 8 8 8 9 10 10 10 10
17 17 17 16 16 15 14 13 12 12 10 10 10 9 9 8 8 7 7 8 8 9 8 8 8 7 7 7 7 7 6 6 7 7 7 8 8 9 10 10 11 10
17 18 18 17 17 16 15 14 13 13 12 11 10 10 9 9 8 8 8 8 8 9 8 8 8 7 7 6 7 7 7 7 7 7 7 7 7 8 8 9 10 10
17 17 18 19 19 18 17 15 14 13 13 12 11 10 10 9 9 9 9 9 9 9 8 8 7 7 7 7 7 7 7 7 7 7 7 7 7 7 7 8 9 9
16 16 17 18 19 20 19 17 15 14 14 13 12 11 11 10 10 9 9 10 10 9 9 8 8 7 7 8 7 7 7 7 7 8 8 8 8 8 8 8 8 8
15 15 17 18 19 19 19 18 17 16 15 14 13 13 12 12 11 11 10 10 10 10 10 9 8 8 7 7 7 7 6 6 7 8 8 9 9 9 8 8 8 8
16 16 16 17 18 18 19 19 18 18 17 16 15 15 14 14 13 13 12 11 11 11 11 10 9 8 7 7 6 6 6 6 6 6 7 8 9 9 9 9 9 9
19 17 16 17 18 18 19 19 19 19 19 19 18 17 16 16 15 15 14 13 13 12 12 11 11 10 8 7 6 6 6 5 5 5 6 6 7 8 9 10 10 9
21 20 18 17 17 18 19 20 20 20 20 20 19 19 18 18 17 17 16 15 15 14 13 13 12 12 11 9 8 7 7 6 6 6 6 6 6 7 8 9 10 10
22 22 20 19 18 18 19 20 20 20 20 20 20 20 20 19 18 18 18 17 16 16 15 14 14 14 13 12 10 9 9 9 9 8 8 8 8 7 7 8 8 9
25 24 22 21 20 19 19 19 19 19 19 20 20 20 21 20 20 19 19 18 17 16 16 15 15 15 14 13 13 12 11 11 11 11 10 10 10 9 9 8 8 9
29 27 25 22 21 21 20 19 19 19 19 19 19 19 19 19 20 19 18 17 16 16 16 16 16 16 16 15 15 14 13 13 13 13 12 12 12 12 11 11 11 11
31 29 27 23 21 21 21 21 20 19 19 19 19 19 18 19 19 19 17 16 16 16 16 17 18 18 17 17 16 15 14 14 14 14 14 14 14 14 13 13 13 13
29 27 26 23 21 21 22 22 22 21 20 20 20 20 19 19 18 18 17 16 16 15 16 17 18 18 17 17 17 16 15 15 15 15 15 15 15 15 15 15 15 15
24 24 23 23 23 23 21 20 21 22 20 17 17 18 18 18 17 17 17 17 16 15 16 17 17 17 17 17 16 16 16 16 16 15 16 16 16 16 16 16 17 17
21 21 20 20 20 20 19 18 19 19 17 13 12 11 11 13 16 17 18 18 17 16 17 18 18 18 18 17 17 16 16 16 17 17 17 18 18 18 18 18 18 19
16 16 16 17 16 15 15 14 14 12 11 11 11 11 11 12 15 16 17 18 18 18 19 20 20 20 20 19 19 18 18 18 18 18 19 19 19 20 20 20 20 20
15 15 16 15 14 12 10 9 9 9 9 10 11 13 13 13 13 13 14 15 16 17 19 19 20 21 21 21 21 20 20 20 20 20 20 20 20 20 21 21 21 22
12 11 10 10 9 7 6 4 3 4 4 5 6 9 10 10 10 10 10 10 11 13 14 15 16 18 19 19 19 19 19 19 19 19 19 19 19 20 21 21 21 22
13 12 12 12 12 12 11 9 8 7 6 5 4 4 5 6 6 6 6 6 8 9 9 10 10 11 12 13 13 13 13 14 15 15 15 16 17 17 18 18 19 20
16 15 15 15 15 14 11 9 9 9 9 9 7 5 4 4 4 3 3 4 5 6 6 7 7 7 8 9 9 10 10 10 10 11 12 14 15 15 15 15 16 17

ECMWFNIL_850_spd_132.txt.gz
Wind_Speed
12 12 12 11 10 10 9 8 7 7 7 7 6 6 6 7 8 8 8 8 7 7 7 7 6 6 7 6 6 6 5 5 4 3 2 1 2 2 3 4 4 4
12 12 13 12 12 12 10 8 7 7 7 7 7 6 7 8 8 8 8 8 8 7 7 7 6 7 7 7 7 6 6 6 5 4 4 3 3 3 3 4 4 5
13 13 13 12 11 11 9 8 8 7 6 6 7 7 7 7 8 8 9 9 8 8 7 7 6 6 7 7 7 6 6 6 5 5 6 5 4 4 4 4 4 5
14 13 13 12 10 10 9 9 9 8 7 7 7 8 8 8 8 9 9 10 10 9 8 8 7 7 7 7 7 6 6 6 6 7 7 6 6 6 5 5 5 5
15 14 14 13 12 11 10 10 9 8 8 8 8 8 9 10 9 9 9 9 9 9 9 8 8 8 8 8 7 7 7 6 6 7 7 7 7 6 5 7 7 6
15 15 15 14 14 13 11 10 10 9 9 9 9 8 9 9 9 9 9 9 9 8 8 8 8 8 8 8 8 8 7 6 7 8 7 7 7 6 6 7 8 8
16 16 15 15 14 14 12 10 10 10 10 9 10 10 9 9 9 9 9 9 9 8 8 8 9 9 9 8 8 8 7 7 8 8 7 7 8 7 8 8 9 8
15 15 16 16 15 14 13 12 12 11 11 11 10 10 10 10 10 10 10 9 9 9 10 10 10 10 9 8 8 7 7 7 7 7 6 7 7 8 8 9 9 9
16 16 16 17 16 15 13 13 13 12 12 12 10 10 10 11 10 10 11 10 10 11 11 11 11 10 9 9 8 7 7 7 7 7 7 7 7 7 7 7 8 8
16 16 16 16 16 16 15 14 13 12 12 12 11 10 10 11 11 11 11 11 10 11 11 10 10 10 9 9 8 8 7 7 7 7 7 7 7 8 7 7 8 7
15 15 15 16 17 16 15 15 15 13 13 13 12 12 11 11 12 12 12 12 10 10 10 10 10 10 9 9 8 8 7 7 7 7 7 8 8 8 8 8 8 8
15 15 15 15 16 16 15 15 15 15 14 13 14 13 12 12 12 12 12 12 11 11 11 11 11 10 10 10 9 9 9 8 8 8 8 7 7 7 8 7 7 8
16 16 15 15 15 15 15 14 15 15 15 14 14 14 14 13 12 12 12 12 12 11 11 11 12 12 12 12 11 10 10 10 9 9 8 8 7 7 7 7 8 8
18 16 15 15 15 15 15 15 14 14 15 15 14 14 15 14 13 13 13 12 12 12 12 12 12 13 13 13 12 11 11 10 10 9 9 8 8 7 7 8 8 8
19 18 17 16 16 16 16 16 16 15 15 15 15 14 14 14 14 13 12 12 12 13 13 13 12 12 13 14 13 12 11 10 10 10 9 9 9 8 8 8 8 9
20 19 19 18 17 17 17 18 17 16 15 15 16 15 14 14 15 14 13 12 12 13 14 13 12 13 15 16 15 13 13 12 11 12 12 11 10 9 9 9 9 10
22 20 20 19 18 18 18 18 18 17 17 16 16 16 15 16 17 16 15 13 11 12 13 12 13 16 18 18 17 16 16 16 15 14 14 13 12 11 10 10 10 10
24 21 19 19 20 19 18 18 18 17 18 18 16 15 15 16 16 16 17 15 13 12 11 11 16 21 21 19 17 18 18 17 16 14 13 13 12 11 11 10 10 10
28 25 22 22 22 20 17 17 18 17 17 18 16 14 14 15 15 17 18 16 14 13 12 15 20 22 20 18 18 18 18 18 16 14 13 13 13 12 12 12 11 11
29 28 26 25 26 23 19 18 19 17 18 20 19 17 15 15 14 15 16 14 14 15 15 18 20 19 18 18 18 17 18 18 17 15 13 13 14 14 13 13 13 12
23 24 24 24 26 25 23 23 22 19 18 19 19 19 19 18 16 15 15 14 14 14 16 19 20 18 17 17 16 16 17 17 17 16 14 13 15 16 16 15 15 14
19 19 19 19 20 23 25 24 22 20 19 18 17 17 18 19 18 17 17 16 15 15 16 19 19 17 17 17 16 17 17 17 18 17 16 15 16 18 18 17 16 16
19 18 16 15 16 19 21 20 17 18 20 20 20 18 18 18 17 17 16 15 16 17 19 20 19 18 18 18 18 19 18 17 18 18 17 17 17 18 17 15 16 18
16 16 15 15 16 17 17 16 15 16 18 18 19 19 19 19 18 17 16 14 14 16 18 18 17 17 19 19 19 20 18 17 17 17 16 15 14 13 12 11 14 16
12 12 12 12 13 13 12 12 12 14 15 16 16 16 16 17 17 17 17 15 13 13 14 14 13 14 16 16 17 17 16 15 14 13 11 11 11 11 10 11 12 14
14 13 12 11 11 11 12 12 12 13 13 13 12 12 13 14 14 14 14 13 12 12 12 11 11 11 10 10 11 11 11 12 11 10 10 11 10 9 9 9 10 12

ECMWFNIL_850_spd_135.txt.gz
Wind_Speed
13 12 11 11 10 10 9 9 9 9 9 8 7 7 8 8 9 9 8 8 7 7 7 7 6 6 6 5 6 6 4 4 4 3 2 1 1 1 2 2 2 2
13 13 12 11 11 12 11 9 8 8 9 9 8 7 8 9 10 10 10 9 8 7 7 7 6 7 6 5 6 6 5 5 4 3 4 3 2 2 3 3 3 3
14 13 13 11 10 11 10 9 9 9 8 8 8 8 8 9 9 10 10 9 8 8 8 7 6 7 7 7 7 6 5 5 4 4 6 5 3 3 3 3 3 4
15 13 12 11 10 10 10 9 9 9 8 8 8 8 8 8 8 9 10 10 10 9 8 7 7 7 7 7 7 6 6 6 6 6 7 6 4 4 4 4 4 4
15 14 13 12 11 11 10 10 9 9 9 8 8 8 9 10 9 8 9 10 10 10 8 8 8 7 7 8 7 7 7 6 7 7 8 6 5 5 4 5 6 6
15 15 15 14 13 12 11 11 10 10 9 9 9 8 9 10 10 8 8 9 9 9 8 8 8 8 8 8 8 8 8 7 7 9 9 7 7 6 5 6 7 7
16 16 16 15 14 14 13 12 12 11 10 10 10 10 9 9 9 9 9 9 9 9 9 8 9 9 9 9 9 9 9 9 9 10 9 8 8 8 7 7 9 9
17 17 17 16 15 15 14 13 13 13 12 12 11 11 10 9 9 9 9 10 9 9 9 9 10 11 9 9 9 9 9 9 9 9 8 8 8 8 8 8 9 9
17 17 17 17 16 15 15 15 14 14 14 14 12 11 11 10 10 10 10 11 10 10 11 11 12 12 9 9 10 10 9 8 8 8 8 8 8 8 8 8 8 9
18 18 17 17 17 16 16 16 15 15 15 14 13 12 11 11 11 10 11 11 10 11 12 12 12 11 9 10 11 10 10 9 9 10 10 9 9 8 8 8 9 9
18 18 18 18 17 17 17 16 15 15 15 15 14 13 12 12 11 11 12 12 11 11 11 10 11 11 10 10 10 10 10 9 9 10 10 9 9 9 9 9 10 10
19 18 18 18 18 17 17 16 16 15 14 15 14 13 12 12 11 12 12 11 11 11 11 11 11 11 11 11 11 11 10 10 10 10 9 9 9 9 10 10 10 10
20 19 19 18 18 18 17 16 16 16 15 14 13 13 12 12 12 12 11 11 11 11 11 11 11 11 12 12 11 12 11 10 11 10 10 10 10 9 10 10 11 11
20 20 19 18 18 19 18 17 16 16 16 15 13 13 13 13 13 12 12 12 12 12 11 12 12 12 12 13 12 12 12 12 12 12 11 10 10 10 10 11 11 11
21 21 20 19 18 18 19 18 16 15 15 15 15 14 14 14 14 13 12 12 13 13 12 12 12 12 13 13 12 11 12 12 12 12 11 11 10 11 11 11 12 12
22 22 22 22 20 19 20 20 18 16 15 15 16 16 15 14 14 14 14 13 13 14 13 12 12 14 16 15 13 12 12 12 13 13 12 12 11 12 12 12 12 12
24 23 23 24 22 21 21 21 19 18 17 17 17 17 17 16 15 15 15 14 13 13 13 12 15 17 17 15 14 15 14 13 13 13 12 12 12 12 12 12 12 12
25 25 25 24 23 22 22 21 21 21 21 20 18 17 18 17 16 16 16 15 14 14 13 14 17 18 17 16 17 17 17 16 16 14 13 13 13 13 13 13 13 12
25 26 26 23 22 23 23 21 22 22 22 22 20 19 18 17 16 16 16 16 16 14 13 16 18 18 18 18 19 20 19 19 19 18 15 14 13 13 14 14 13 13
23 25 24 21 21 22 22 22 23 22 22 22 21 21 20 19 17 16 16 17 16 14 15 19 19 18 19 20 20 21 20 19 19 19 16 15 15 14 15 15 13 13
21 21 19 18 18 18 19 20 20 21 21 21 20 21 21 20 19 17 15 16 15 14 15 20 21 19 20 21 20 19 18 17 18 18 16 15 15 14 14 15 14 14
20 19 18 19 19 18 18 18 19 20 21 20 19 20 20 21 20 18 16 16 14 15 17 21 22 21 20 20 18 16 15 16 16 17 16 16 15 14 14 13 13 14
17 18 19 20 19 19 19 20 20 21 22 21 21 20 21 23 23 20 19 18 17 18 21 21 20 19 18 17 17 16 16 16 16 16 16 16 16 17 17 14 12 13
16 18 19 18 17 18 18 19 20 21 22 22 22 22 23 26 24 20 20 20 19 20 22 22 20 18 17 17 17 17 17 17 16 16 16 15 17 18 18 16 15 14
18 20 21 19 17 16 16 16 17 18 20 22 23 24 24 24 22 21 23 24 22 21 22 22 19 17 17 17 18 18 17 16 16 15 14 14 17 18 17 16 15 15
17 18 19 19 19 17 16 16 16 17 21 23 23 24 24 21 18 19 22 23 22 22 21 18 15 14 15 16 16 16 15 14 13 12 11 11 11 12 13 12 11 13

ECMWFNIL_850_spd_138.txt.gz
Wind_Speed
14 15 14 13 13 13 13 13 12 11 11 10 10 11 11 10 11 11 9 8 8 8 8 7 7 7 7 8 8 7 6 6 5 3 3 4 5 4 2 1 1 0
14 14 14 14 13 12 12 12 12 11 12 11 10 11 12 12 13 14 12 9 8 8 7 7 7 7 7 7 7 8 6 6 6 4 2 2 3 4 3 1 0 2
15 14 14 14 14 13 11 11 12 11 11 12 11 11 11 11 12 13 13 10 8 8 7 7 7 7 7 7 7 7 6 6 6 4 3 3 2 2 1 1 1 2
15 14 14 13 13 13 12 12 12 11 11 11 11 10 9 10 11 11 12 10 10 10 9 7 7 7 8 8 7 7 6 5 6 6 5 4 4 3 2 2 2 3
16 15 15 14 12 13 14 13 13 12 11 11 11 11 12 12 11 10 11 11 11 12 10 8 8 7 7 8 7 7 6 5 4 5 5 4 4 3 2 4 4 5
17 16 16 16 14 14 14 13 12 13 12 11 11 12 13 13 11 9 10 10 11 12 10 8 8 8 7 7 7 8 7 6 5 7 6 5 5 4 4 5 6 7
18 17 17 18 16 15 15 13 12 13 12 12 12 12 12 12 11 11 10 10 9 10 9 8 8 8 8 8 7 8 8 8 8 8 7 6 6 6 7 7 7 9
18 18 18 18 17 16 16 15 14 14 13 12 12 12 11 11 11 11 11 11 10 10 11 11 11 10 10 9 8 8 9 8 8 8 7 7 7 8 7 7 8 10
19 19 19 18 17 17 16 15 15 16 15 14 13 12 12 12 12 11 11 12 12 12 12 13 12 10 10 10 8 8 8 8 8 9 8 7 8 8 7 8 8 9
20 19 19 19 18 17 17 16 16 16 15 15 15 13 13 13 12 12 13 12 12 13 13 12 12 10 10 11 10 9 9 8 9 10 9 8 7 8 7 8 8 8
20 19 19 19 18 18 17 17 16 16 15 15 15 15 15 13 11 12 15 13 12 12 13 12 12 11 11 11 10 9 9 8 9 9 9 9 9 9 8 8 9 9
21 20 19 19 19 17 16 17 17 16 16 15 15 17 17 16 13 13 14 13 11 12 12 11 11 11 10 10 10 10 9 8 9 8 8 9 9 8 9 10 10 9
22 21 20 19 19 18 16 16 17 17 16 15 15 16 17 16 14 14 13 12 12 12 12 11 10 10 10 10 10 10 10 10 10 9 9 10 9 8 9 10 10 10
24 23 21 19 18 18 17 16 16 17 16 14 14 15 16 16 15 15 14 14 12 12 13 12 11 11 10 10 10 11 11 11 11 10 11 11 10 8 8 9 10 11
25 24 22 20 18 17 18 18 16 16 17 15 13 14 15 15 14 13 14 15 13 12 12 12 12 12 12 10 11 11 11 11 11 12 12 12 12 11 9 8 9 10
24 24 23 23 20 17 19 20 17 15 16 16 14 14 14 14 14 13 13 13 13 13 13 13 13 14 13 11 11 11 10 10 11 11 12 12 12 11 11 9 9 9
23 21 21 23 22 18 18 21 20 16 14 16 16 15 14 15 15 14 13 13 13 13 14 14 15 16 14 12 12 12 11 11 11 10 10 11 10 10 10 10 9 9
23 20 18 18 20 19 18 20 23 21 18 17 17 17 17 17 16 15 15 14 13 12 14 15 16 16 14 13 13 14 13 13 12 10 9 10 9 9 9 10 10 11
24 22 19 16 16 20 22 24 25 24 24 22 20 19 19 19 18 17 16 15 13 12 15 16 15 14 15 15 15 16 14 14 14 12 11 12 10 9 10 11 11 11
23 22 23 22 21 23 25 26 25 24 25 26 25 22 19 18 19 18 16 16 15 14 16 17 16 16 17 17 17 17 16 16 15 14 14 12 10 11 12 14 14 13
21 21 24 27 27 26 27 27 26 25 24 24 25 24 21 18 18 17 16 16 16 15 16 18 17 17 18 18 18 17 17 17 16 15 14 11 10 13 16 17 17 17
21 22 24 26 28 28 29 28 27 27 26 25 24 24 23 21 20 18 17 16 16 17 17 18 19 19 19 19 19 18 18 17 16 15 13 11 12 16 17 18 18 18
21 22 22 24 26 27 27 26 25 25 25 25 23 22 22 22 22 21 20 19 19 19 19 19 20 21 21 21 20 20 18 17 16 15 13 14 16 18 18 18 18 17
18 20 20 22 24 24 23 23 23 23 23 24 23 22 21 20 21 22 23 23 22 22 22 22 21 21 21 20 20 20 18 17 16 15 14 15 16 16 16 17 16 16
16 18 19 20 21 20 22 23 23 23 22 22 22 22 22 19 18 21 25 25 24 25 25 25 24 22 21 20 19 18 17 16 16 16 16 16 17 16 16 15 15 16
15 16 17 18 19 19 21 23 24 24 24 23 22 21 20 19 19 22 25 25 25 27 27 26 25 23 22 21 19 18 17 16 17 16 16 17 18 17 15 15 16 18

ECMWFNIL_850_spd_141.txt.gz
Wind_Speed
18 16 15 17 17 15 14 14 13 12 12 11 12 13 12 12 13 12 10 10 10 10 10 9 10 10 9 10 9 8 8 7 7 7 6 6 6 7 7 4 6 8
18 17 16 17 17 15 15 15 13 13 13 11 11 11 12 12 12 10 9 10 11 10 10 9 9 10 9 9 9 8 9 8 7 7 6 6 6 7 7 6 6 6
19 18 17 17 17 16 15 15 14 13 13 12 11 11 12 12 11 9 9 10 10 10 11 10 9 10 10 10 10 9 8 7 7 8 7 6 6 6 7 8 6 3
19 19 18 17 17 15 15 16 15 14 14 13 12 12 13 14 14 13 12 10 10 10 10 10 9 10 10 10 10 9 9 9 8 8 7 7 7 6 7 8 8 6
19 19 18 17 17 16 15 16 16 15 15 16 15 13 12 14 15 16 16 13 11 11 10 9 10 10 10 10 10 10 10 10 9 7 6 6 6 7 6 7 7 8
19 18 18 18 17 16 17 17 16 15 15 15 14 13 13 13 13 14 15 14 12 13 11 10 10 10 10 10 10 11 10 10 9 8 8 7 7 8 8 7 7 9
19 18 18 17 15 16 17 16 15 14 14 13 12 13 14 15 14 12 12 13 13 14 12 9 9 10 10 10 10 11 11 10 10 9 7 7 8 9 10 9 8 9
19 18 19 18 16 16 17 16 14 14 15 14 12 13 14 15 15 12 11 11 12 13 12 9 8 8 9 9 9 11 11 10 10 9 7 6 7 7 8 9 9 9
19 19 20 21 19 18 17 15 13 14 16 15 13 12 13 12 12 12 11 11 11 11 11 11 10 10 10 10 10 10 10 10 10 10 8 8 8 7 7 8 9 9
19 19 20 22 20 18 18 17 15 15 17 16 14 13 12 11 11 12 12 12 12 13 13 13 14 14 12 12 12 10 9 9 10 10 9 8 7 7 7 7 7 7
20 19 20 21 21 18 17 18 18 17 18 18 18 16 13 12 12 12 13 13 13 15 16 16 16 15 13 12 12 11 9 8 9 10 10 10 8 6 6 6 6 6
21 20 19 19 19 18 16 17 17 17 17 18 19 18 16 15 14 14 16 16 14 14 15 15 14 14 12 11 11 11 11 9 9 10 10 10 10 8 8 6 5 5
20 20 19 18 18 17 16 17 17 16 15 16 17 18 18 17 15 14 16 16 13 13 13 13 13 13 12 12 12 12 11 10 10 10 9 10 10 8 7 7 7 7
18 17 17 17 17 16 17 17 17 16 15 14 16 16 17 18 17 15 14 14 14 12 12 12 12 12 12 12 12 12 12 12 11 10 10 10 10 8 7 8 8 8
19 18 17 17 16 16 17 17 16 15 14 14 14 13 12 15 19 18 16 15 14 12 12 13 13 12 13 12 11 11 12 12 11 11 11 11 10 9 9 9 8 7
21 21 20 19 19 18 17 18 18 16 14 14 14 12 10 13 16 18 18 16 14 12 13 14 14 14 14 13 12 12 12 11 10 10 10 10 10 9 9 8 8 7
23 24 24 23 23 21 18 18 19 17 14 15 16 14 11 11 13 14 14 14 13 13 13 14 15 15 14 13 13 12 12 11 10 9 8 8 8 7 6 5 5 5
24 25 26 25 25 24 20 19 21 20 15 14 17 17 14 13 14 15 15 15 15 15 16 17 17 16 14 13 14 13 12 10 10 10 8 5 5 5 4 4 5 6
25 24 24 26 27 27 23 20 22 24 21 16 16 19 19 19 19 19 19 19 18 18 19 18 18 17 14 13 14 14 13 10 10 11 9 7 7 7 8 8 8 9
28 26 24 25 27 28 28 25 24 25 26 22 19 19 22 23 22 21 21 21 19 18 17 16 16 16 15 13 14 14 13 11 11 11 12 12 11 11 11 12 12 12
31 30 27 26 27 27 28 29 28 27 27 27 25 22 22 23 23 23 23 23 22 20 17 16 16 16 16 15 15 14 14 13 12 12 13 14 14 12 12 13 13 13
32 31 29 28 29 28 28 28 30 30 28 28 27 26 25 24 23 24 24 24 24 23 21 20 19 18 18 17 16 15 15 15 15 15 16 16 16 15 15 15 14 15
29 30 30 30 31 32 30 29 29 30 29 28 27 26 27 26 25 25 26 25 24 23 23 22 21 21 20 19 18 17 17 17 17 18 18 18 17 17 17 18 17 17
27 27 29 32 32 33 33 31 30 31 30 29 27 26 26 28 28 28 27 26 25 24 23 23 22 22 21 20 19 18 18 19 20 20 19 18 17 17 17 18 17 17
26 25 28 31 31 31 31 31 30 31 30 28 27 27 29 31 31 29 28 27 26 26 25 24 23 23 22 21 20 19 19 20 21 21 20 19 18 18 18 17 17 17
21 23 26 28 28 28 29 28 27 27 27 26 26 27 30 32 31 29 27 27 26 26 26 25 25 25 24 23 21 21 21 20 20 20 20 19 19 19 18 18 18 18